Observation data for Rotan on 12/08/2018      Previous  Date       Current Mesonet Observations  Soil Data  Daily Summary Page  Observations in Plain Language
KRO1 080600Z 00010KT 01/00 A3028 RMK A01 T00070001  RH  096%=      5-min Rain = 0
KRO1 080601Z 36009KT 01/00 A3028 RMK A01 T00070001  RH  096%=      5-min Rain = 0
KRO1 080602Z 36011KT 01/00 A3027 RMK A01 T00070001  RH  096%=      5-min Rain = 0
KRO1 080603Z 00008KT 01/00 A3027 RMK A01 T00070001  RH  096%=      5-min Rain = 0
KRO1 080604Z 01009KT 01/00 A3027 RMK A01 T00070001  RH  096%=      5-min Rain = 0
KRO1 080605Z 01011KT 01/00 A3027 RMK A01 T00070002  RH  096%=      5-min Rain = 0
KRO1 080606Z 01009KT 01/00 A3027 RMK A01 T00070001  RH  096%=      5-min Rain = 0
KRO1 080607Z 00010KT 01/00 A3027 RMK A01 T00070002  RH  096%=      5-min Rain = 0
KRO1 080608Z 01012KT 01/00 A3026 RMK A01 T00070002  RH  096%=      5-min Rain = 0
KRO1 080609Z 01012KT 01/00 A3026 RMK A01 T00070001  RH  096%=      5-min Rain = 0
KRO1 080610Z 01011KT 01/00 A3026 RMK A01 T00070001  RH  096%=      5-min Rain = 0
KRO1 080611Z 01011KT 01/00 A3026 RMK A01 T00070001  RH  096%=      5-min Rain = 0
KRO1 080612Z 01009KT 01/00 A3026 RMK A01 T00070001  RH  096%=      5-min Rain = 0
KRO1 080613Z 01009KT 01/00 A3026 RMK A01 T00070002  RH  096%=      5-min Rain = 0
KRO1 080614Z 02011KT 01/00 A3026 RMK A01 T00070002  RH  096%=      5-min Rain = 0
KRO1 080615Z 01009KT 01/00 A3026 RMK A01 T00070002  RH  096%=      5-min Rain = 0
KRO1 080616Z 01010KT 01/00 A3026 RMK A01 T00070001  RH  096%=      5-min Rain = 0
KRO1 080617Z 01010KT 01/00 A3026 RMK A01 T00070001  RH  096%=      5-min Rain = 0
KRO1 080618Z 01010KT 01/00 A3027 RMK A01 T00070001  RH  096%=      5-min Rain = 0.01
KRO1 080619Z 01010KT 01/00 A3027 RMK A01 T00070002  RH  096%=      5-min Rain = 0
KRO1 080620Z 01011KT 01/00 A3027 RMK A01 T00070002  RH  096%=      5-min Rain = 0
KRO1 080621Z 01012KT 01/00 A3027 RMK A01 T00070001  RH  096%=      5-min Rain = 0
KRO1 080622Z 01011KT 01/00 A3027 RMK A01 T00070001  RH  096%=      5-min Rain = 0
KRO1 080623Z 00011KT 01/00 A3027 RMK A01 T00070001  RH  096%=      5-min Rain = 0
KRO1 080624Z 01010KT 01/00 A3027 RMK A01 T00070001  RH  096%=      5-min Rain = 0
KRO1 080625Z 00012KT 01/00 A3027 RMK A01 T00070002  RH  096%=      5-min Rain = 0
KRO1 080626Z 00011KT 01/00 A3027 RMK A01 T00070001  RH  096%=      5-min Rain = 0
KRO1 080627Z 36012KT 01/00 A3027 RMK A01 T00070002  RH  096%=      5-min Rain = 0
KRO1 080628Z 36011KT 01/00 A3027 RMK A01 T00070001  RH  096%=      5-min Rain = 0
KRO1 080629Z 00010KT 01/00 A3027 RMK A01 T00070001  RH  096%=      5-min Rain = 0
KRO1 080630Z 00012KT 01/00 A3027 RMK A01 T00070001  RH  096%=      5-min Rain = 0
KRO1 080631Z 00011KT 01/00 A3027 RMK A01 T00070002  RH  096%=      5-min Rain = 0
KRO1 080632Z 36011KT 01/00 A3027 RMK A01 T00070001  RH  096%=      5-min Rain = 0
KRO1 080633Z 00011KT 01/00 A3027 RMK A01 T00070001  RH  096%=      5-min Rain = 0
KRO1 080634Z 00010KT 01/00 A3027 RMK A01 T00070002  RH  096%=      5-min Rain = 0
KRO1 080635Z 00012KT 01/00 A3027 RMK A01 T00070002  RH  096%=      5-min Rain = 0
KRO1 080636Z 01010KT 01/00 A3027 RMK A01 T00070001  RH  096%=      5-min Rain = 0
KRO1 080637Z 36010KT 01/00 A3027 RMK A01 T00070001  RH  096%=      5-min Rain = 0
KRO1 080638Z 36011KT 01/00 A3027 RMK A01 T00060001  RH  096%=      5-min Rain = 0
KRO1 080639Z 36009KT 01/00 A3027 RMK A01 T00070001  RH  096%=      5-min Rain = 0
KRO1 080640Z 00012KT 01/00 A3027 RMK A01 T00070001  RH  096%=      5-min Rain = 0
KRO1 080641Z 00011KT 01/00 A3027 RMK A01 T00070001  RH  096%=      5-min Rain = 0
KRO1 080642Z 01010KT 01/00 A3027 RMK A01 T00070001  RH  096%=      5-min Rain = 0
KRO1 080643Z 36011KT 01/00 A3027 RMK A01 T00060001  RH  096%=      5-min Rain = 0
KRO1 080644Z 00012KT 01/00 A3027 RMK A01 T00070001  RH  096%=      5-min Rain = 0
KRO1 080645Z 00011KT 01/00 A3027 RMK A01 T00070001  RH  096%=      5-min Rain = 0
KRO1 080646Z 01012KT 01/00 A3027 RMK A01 T00070001  RH  096%=      5-min Rain = 0.01
KRO1 080647Z 36011KT 01/00 A3027 RMK A01 T00070001  RH  096%=      5-min Rain = 0
KRO1 080648Z 00009KT 01/00 A3027 RMK A01 T00070001  RH  096%=      5-min Rain = 0
KRO1 080649Z 01009KT 01/00 A3027 RMK A01 T00070001  RH  096%=      5-min Rain = 0
KRO1 080650Z 00010KT 01/00 A3027 RMK A01 T00070001  RH  096%=      5-min Rain = 0
KRO1 080651Z 00011KT 01/00 A3027 RMK A01 T00070001  RH  096%=      5-min Rain = 0
KRO1 080652Z 00009KT 01/00 A3027 RMK A01 T00060001  RH  096%=      5-min Rain = 0
KRO1 080653Z 01010KT 01/00 A3027 RMK A01 T00060001  RH  096%=      5-min Rain = 0.01
KRO1 080654Z 00011KT 01/00 A3027 RMK A01 T00070001  RH  096%=      5-min Rain = 0
KRO1 080655Z 01011KT 01/00 A3027 RMK A01 T00070001  RH  096%=      5-min Rain = 0
KRO1 080656Z 00010KT 01/00 A3027 RMK A01 T00070001  RH  096%=      5-min Rain = 0
KRO1 080657Z 36008KT 01/00 A3027 RMK A01 T00070001  RH  096%=      5-min Rain = 0
KRO1 080658Z 36009KT 01/00 A3027 RMK A01 T00070001  RH  096%=      5-min Rain = 0
KRO1 080659Z 00012KT 01/00 A3027 RMK A01 T00060001  RH  096%=      5-min Rain = 0
KRO1 080700Z 36010KT 01/00 A3027 RMK A01 T00060001  RH  096%=      5-min Rain = 0
KRO1 080701Z 36010KT 01/00 A3027 RMK A01 T00060000  RH  096%=      5-min Rain = 0
KRO1 080702Z 36011KT 01/00 A3027 RMK A01 T000600-0  RH  096%=      5-min Rain = 0.01
KRO1 080703Z 36011KT 01/00 A3027 RMK A01 T000500-0  RH  096%=      5-min Rain = 0
KRO1 080704Z 35011KT 01/M00 A3027 RMK A01 T00051001  RH  096%=      5-min Rain = 0
KRO1 080705Z 35011KT 01/00 A3027 RMK A01 T000500-0  RH  096%=      5-min Rain = 0
KRO1 080706Z 36011KT 01/00 A3027 RMK A01 T000500-0  RH  096%=      5-min Rain = 0
KRO1 080707Z 36011KT 01/00 A3027 RMK A01 T000500-0  RH  096%=      5-min Rain = 0
KRO1 080708Z 36010KT 01/M00 A3027 RMK A01 T00051001  RH  096%=      5-min Rain = 0
KRO1 080709Z 00010KT 01/M00 A3027 RMK A01 T00051001  RH  096%=      5-min Rain = 0
KRO1 080710Z 36011KT 01/M00 A3027 RMK A01 T00051001  RH  096%=      5-min Rain = 0
KRO1 080711Z 36011KT 01/M00 A3027 RMK A01 T00051001  RH  096%=      5-min Rain = 0
KRO1 080712Z 35012KT 01/M00 A3027 RMK A01 T00051001  RH  096%=      5-min Rain = 0
KRO1 080713Z 36011KT 01/M00 A3027 RMK A01 T00051001  RH  096%=      5-min Rain = 0
KRO1 080714Z 35010KT 01/M00 A3027 RMK A01 T00051001  RH  096%=      5-min Rain = 0
KRO1 080715Z 36011KT 01/M00 A3027 RMK A01 T00051001  RH  096%=      5-min Rain = 0
KRO1 080716Z 35011KT 01/M00 A3027 RMK A01 T00051001  RH  096%=      5-min Rain = 0
KRO1 080717Z 36010KT 00/M00 A3027 RMK A01 T00041001  RH  096%=      5-min Rain = 0.01
KRO1 080718Z 00011KT 00/M00 A3027 RMK A01 T00041001  RH  096%=      5-min Rain = 0
KRO1 080719Z 00011KT 00/M00 A3027 RMK A01 T00041001  RH  096%=      5-min Rain = 0
KRO1 080720Z 36010KT 00/M00 A3028 RMK A01 T00041001  RH  096%=      5-min Rain = 0
KRO1 080721Z 35010KT 00/M00 A3028 RMK A01 T00041001  RH  096%=      5-min Rain = 0
KRO1 080722Z 36012KT 00/M00 A3028 RMK A01 T00041001  RH  096%=      5-min Rain = 0
KRO1 080723Z 36013KT 00/M00 A3028 RMK A01 T00041001  RH  096%=      5-min Rain = 0
KRO1 080724Z 00013KT 00/M00 A3028 RMK A01 T00041002  RH  096%=      5-min Rain = 0
KRO1 080725Z 36015KT 00/M00 A3027 RMK A01 T00041002  RH  096%=      5-min Rain = 0
KRO1 080726Z 36012KT 00/M00 A3027 RMK A01 T00041002  RH  096%=      5-min Rain = 0
KRO1 080727Z 36012KT 00/M00 A3027 RMK A01 T00041002  RH  096%=      5-min Rain = 0.01
KRO1 080728Z 36012KT 00/M00 A3027 RMK A01 T00041002  RH  096%=      5-min Rain = 0
KRO1 080729Z 36012KT 00/M00 A3027 RMK A01 T00041002  RH  096%=      5-min Rain = 0
KRO1 080730Z 36013KT 00/M00 A3027 RMK A01 T00041002  RH  096%=      5-min Rain = 0
KRO1 080731Z 36012KT 00/M00 A3028 RMK A01 T00041002  RH  096%=      5-min Rain = 0
KRO1 080732Z 36013KT 00/M00 A3028 RMK A01 T00041002  RH  096%=      5-min Rain = 0
KRO1 080733Z 00011KT 00/M00 A3027 RMK A01 T00041002  RH  096%=      5-min Rain = 0
KRO1 080734Z 36013KT 00/M00 A3027 RMK A01 T00041002  RH  096%=      5-min Rain = 0
KRO1 080735Z 00010KT 00/M00 A3027 RMK A01 T00041002  RH  096%=      5-min Rain = 0.01
KRO1 080736Z 01010KT 00/M00 A3027 RMK A01 T00041002  RH  096%=      5-min Rain = 0
KRO1 080737Z 36010KT 00/M00 A3027 RMK A01 T00041001  RH  096%=      5-min Rain = 0
KRO1 080738Z 00010KT 00/M00 A3027 RMK A01 T00041001  RH  096%=      5-min Rain = 0
KRO1 080739Z 36010KT 00/M00 A3027 RMK A01 T00041001  RH  096%=      5-min Rain = 0
KRO1 080740Z 36012KT 00/M00 A3027 RMK A01 T00041001  RH  096%=      5-min Rain = 0
KRO1 080741Z 00009KT 00/M00 A3027 RMK A01 T00041001  RH  096%=      5-min Rain = 0
KRO1 080742Z 00013KT 00/M00 A3027 RMK A01 T00041001  RH  096%=      5-min Rain = 0
KRO1 080743Z 00012KT 00/M00 A3027 RMK A01 T00041001  RH  096%=      5-min Rain = 0
KRO1 080744Z 36010KT 00/M00 A3027 RMK A01 T00041001  RH  096%=      5-min Rain = 0
KRO1 080745Z 00011KT 00/M00 A3027 RMK A01 T00041001  RH  096%=      5-min Rain = 0
KRO1 080746Z 01009KT 00/M00 A3027 RMK A01 T00041001  RH  096%=      5-min Rain = 0
KRO1 080747Z 00008KT 00/M00 A3027 RMK A01 T00041001  RH  096%=      5-min Rain = 0.01
KRO1 080748Z 00008KT 01/M00 A3027 RMK A01 T00051001  RH  096%=      5-min Rain = 0
KRO1 080749Z 01008KT 01/00 A3027 RMK A01 T000500-0  RH  096%=      5-min Rain = 0
KRO1 080750Z 00008KT 01/00 A3027 RMK A01 T000500-0  RH  096%=      5-min Rain = 0
KRO1 080751Z 01010KT 01/00 A3027 RMK A01 T000500-0  RH  096%=      5-min Rain = 0
KRO1 080752Z 36010KT 01/M00 A3027 RMK A01 T00051001  RH  096%=      5-min Rain = 0
KRO1 080753Z 00009KT 01/00 A3027 RMK A01 T000500-0  RH  096%=      5-min Rain = 0
KRO1 080754Z 01010KT 01/00 A3027 RMK A01 T000500-0  RH  096%=      5-min Rain = 0
KRO1 080755Z 01010KT 01/M00 A3026 RMK A01 T00051001  RH  096%=      5-min Rain = 0
KRO1 080756Z 01011KT 01/M00 A3026 RMK A01 T00051001  RH  096%=      5-min Rain = 0
KRO1 080757Z 01012KT 01/M00 A3026 RMK A01 T00051001  RH  096%=      5-min Rain = 0
KRO1 080758Z 00012KT 01/M00 A3026 RMK A01 T00051001  RH  096%=      5-min Rain = 0
KRO1 080759Z 00010KT 01/M00 A3026 RMK A01 T00051001  RH  096%=      5-min Rain = 0
KRO1 080800Z 00012KT 01/M00 A3026 RMK A01 T00051001  RH  096%=      5-min Rain = 0
KRO1 080801Z 00014KT 01/M00 A3026 RMK A01 T00051001  RH  096%=      5-min Rain = 0
KRO1 080802Z 00013KT 01/M00 A3026 RMK A01 T00051001  RH  096%=      5-min Rain = 0
KRO1 080803Z 01012KT 01/M00 A3026 RMK A01 T00051002  RH  096%=      5-min Rain = 0
KRO1 080804Z 01012KT 01/M00 A3026 RMK A01 T00051002  RH  096%=      5-min Rain = 0
KRO1 080805Z 00013KT 01/M00 A3026 RMK A01 T00051002  RH  096%=      5-min Rain = 0
KRO1 080806Z 01013KT 01/M00 A3026 RMK A01 T00051002  RH  095%=      5-min Rain = 0.01
KRO1 080807Z 00013KT 01/M00 A3026 RMK A01 T00051002  RH  095%=      5-min Rain = 0
KRO1 080808Z 01013KT 00/M00 A3026 RMK A01 T00041002  RH  095%=      5-min Rain = 0
KRO1 080809Z 01011KT 00/M00 A3026 RMK A01 T00041002  RH  095%=      5-min Rain = 0
KRO1 080810Z 01012KT 00/M00 A3026 RMK A01 T00041002  RH  096%=      5-min Rain = 0
KRO1 080811Z 01012KT 00/M00 A3026 RMK A01 T00041002  RH  096%=      5-min Rain = 0
KRO1 080812Z 01011KT 00/M00 A3026 RMK A01 T00041002  RH  096%=      5-min Rain = 0
KRO1 080813Z 01011KT 00/M00 A3026 RMK A01 T00041001  RH  096%=      5-min Rain = 0
KRO1 080814Z 00011KT 00/M00 A3026 RMK A01 T00041002  RH  096%=      5-min Rain = 0
KRO1 080815Z 01011KT 00/M00 A3026 RMK A01 T00041002  RH  096%=      5-min Rain = 0
KRO1 080816Z 01013KT 00/M00 A3026 RMK A01 T00041001  RH  096%=      5-min Rain = 0
KRO1 080817Z 00011KT 00/M00 A3026 RMK A01 T00041002  RH  096%=      5-min Rain = 0.01
KRO1 080818Z 00013KT 00/M00 A3026 RMK A01 T00041002  RH  096%=      5-min Rain = 0
KRO1 080819Z 01013KT 00/M00 A3026 RMK A01 T00041002  RH  096%=      5-min Rain = 0
KRO1 080820Z 01013KT 01/M00 A3026 RMK A01 T00051002  RH  096%=      5-min Rain = 0
KRO1 080821Z 01012KT 00/M00 A3026 RMK A01 T00041002  RH  096%=      5-min Rain = 0
KRO1 080822Z 01013KT 00/M00 A3026 RMK A01 T00041002  RH  096%=      5-min Rain = 0
KRO1 080823Z 00013KT 00/M00 A3026 RMK A01 T00041002  RH  096%=      5-min Rain = 0
KRO1 080824Z 01013KT 00/M00 A3026 RMK A01 T00041002  RH  095%=      5-min Rain = 0
KRO1 080825Z 01014KT 00/M00 A3026 RMK A01 T00041002  RH  095%=      5-min Rain = 0
KRO1 080826Z 00013KT 00/M00 A3026 RMK A01 T00041002  RH  095%=      5-min Rain = 0
KRO1 080827Z 01012KT 00/M00 A3026 RMK A01 T00041002  RH  095%=      5-min Rain = 0
KRO1 080828Z 01012KT 00/M00 A3026 RMK A01 T00041002  RH  095%=      5-min Rain = 0
KRO1 080829Z 01012KT 00/M00 A3026 RMK A01 T00041002  RH  096%=      5-min Rain = 0
KRO1 080830Z 01011KT 00/M00 A3026 RMK A01 T00041002  RH  096%=      5-min Rain = 0
KRO1 080831Z 01011KT 00/M00 A3026 RMK A01 T00041002  RH  096%=      5-min Rain = 0
KRO1 080832Z 01011KT 01/M00 A3026 RMK A01 T00051001  RH  096%=      5-min Rain = 0.01
KRO1 080833Z 01012KT 00/M00 A3026 RMK A01 T00041002  RH  096%=      5-min Rain = 0
KRO1 080834Z 01010KT 00/M00 A3026 RMK A01 T00041002  RH  096%=      5-min Rain = 0
KRO1 080835Z 01008KT 00/M00 A3026 RMK A01 T00041002  RH  096%=      5-min Rain = 0
KRO1 080836Z 01009KT 00/M00 A3026 RMK A01 T00041001  RH  096%=      5-min Rain = 0
KRO1 080837Z 01009KT 00/M00 A3026 RMK A01 T00041001  RH  096%=      5-min Rain = 0
KRO1 080838Z 01009KT 00/M00 A3025 RMK A01 T00041001  RH  096%=      5-min Rain = 0
KRO1 080839Z 00010KT 00/M00 A3025 RMK A01 T00041001  RH  096%=      5-min Rain = 0
KRO1 080840Z 01011KT 00/M00 A3025 RMK A01 T00041001  RH  096%=      5-min Rain = 0
KRO1 080841Z 00011KT 00/M00 A3025 RMK A01 T00041001  RH  096%=      5-min Rain = 0
KRO1 080842Z 01011KT 00/M00 A3025 RMK A01 T00041001  RH  096%=      5-min Rain = 0
KRO1 080843Z 01010KT 00/M00 A3025 RMK A01 T00041001  RH  096%=      5-min Rain = 0
KRO1 080844Z 01012KT 00/M00 A3025 RMK A01 T00041001  RH  096%=      5-min Rain = 0
KRO1 080845Z 01013KT 00/M00 A3025 RMK A01 T00041001  RH  096%=      5-min Rain = 0
KRO1 080846Z 01012KT 00/M00 A3025 RMK A01 T00041002  RH  096%=      5-min Rain = 0
KRO1 080847Z 01012KT 00/M00 A3025 RMK A01 T00041002  RH  096%=      5-min Rain = 0
KRO1 080848Z 01013KT 00/M00 A3025 RMK A01 T00041002  RH  096%=      5-min Rain = 0
KRO1 080849Z 01012KT 00/M00 A3025 RMK A01 T00041002  RH  096%=      5-min Rain = 0
KRO1 080850Z 01010KT 00/M00 A3025 RMK A01 T00041002  RH  096%=      5-min Rain = 0.01
KRO1 080851Z 01011KT 00/M00 A3025 RMK A01 T00041002  RH  096%=      5-min Rain = 0
KRO1 080852Z 01010KT 00/M00 A3025 RMK A01 T00041002  RH  096%=      5-min Rain = 0
KRO1 080853Z 01011KT 00/M00 A3025 RMK A01 T00041002  RH  096%=      5-min Rain = 0
KRO1 080854Z 00011KT 00/M00 A3025 RMK A01 T00041002  RH  096%=      5-min Rain = 0
KRO1 080855Z 01010KT 00/M00 A3025 RMK A01 T00041002  RH  096%=      5-min Rain = 0
KRO1 080856Z 01009G14KT 00/M00 A3025 RMK A01 T00041001  RH  096%=      5-min Rain = 0
KRO1 080857Z 01013KT 00/M00 A3025 RMK A01 T00041001  RH  096%=      5-min Rain = 0
KRO1 080858Z 01011KT 00/M00 A3025 RMK A01 T00041002  RH  096%=      5-min Rain = 0
KRO1 080859Z 01011KT 00/M00 A3025 RMK A01 T00041002  RH  096%=      5-min Rain = 0
KRO1 080900Z 01012KT 00/M00 A3025 RMK A01 T00041001  RH  096%=      5-min Rain = 0
KRO1 080901Z 02012KT 00/M00 A3025 RMK A01 T00041001  RH  096%=      5-min Rain = 0
KRO1 080902Z 01013KT 00/M00 A3025 RMK A01 T00041001  RH  096%=      5-min Rain = 0
KRO1 080903Z 01012KT 00/M00 A3025 RMK A01 T00041002  RH  096%=      5-min Rain = 0
KRO1 080904Z 01013KT 00/M00 A3025 RMK A01 T00041002  RH  096%=      5-min Rain = 0.01
KRO1 080905Z 01014KT 00/M00 A3025 RMK A01 T00041002  RH  096%=      5-min Rain = 0
KRO1 080906Z 01011KT 00/M00 A3025 RMK A01 T00041002  RH  096%=      5-min Rain = 0
KRO1 080907Z 01011KT 00/M00 A3025 RMK A01 T00041002  RH  096%=      5-min Rain = 0
KRO1 080908Z 02012KT 00/M00 A3025 RMK A01 T00041002  RH  096%=      5-min Rain = 0
KRO1 080909Z 01011KT 00/M00 A3025 RMK A01 T00041002  RH  096%=      5-min Rain = 0
KRO1 080910Z 01010KT 00/M00 A3025 RMK A01 T00041002  RH  096%=      5-min Rain = 0
KRO1 080911Z 01011KT 00/M00 A3025 RMK A01 T00041002  RH  096%=      5-min Rain = 0
KRO1 080912Z 01013KT 00/M00 A3025 RMK A01 T00041001  RH  096%=      5-min Rain = 0
KRO1 080913Z 01014KT 00/M00 A3025 RMK A01 T00041002  RH  096%=      5-min Rain = 0
KRO1 080914Z 01013KT 00/M00 A3025 RMK A01 T00041002  RH  096%=      5-min Rain = 0
KRO1 080915Z 01010KT 00/M00 A3025 RMK A01 T00041002  RH  096%=      5-min Rain = 0
KRO1 080916Z 01010KT 01/M00 A3025 RMK A01 T00051001  RH  096%=      5-min Rain = 0
KRO1 080917Z 01010KT 00/M00 A3025 RMK A01 T00041002  RH  096%=      5-min Rain = 0
KRO1 080918Z 01011KT 00/M00 A3025 RMK A01 T00041001  RH  096%=      5-min Rain = 0
KRO1 080919Z 01011KT 00/M00 A3025 RMK A01 T00041001  RH  096%=      5-min Rain = 0
KRO1 080920Z 01011KT 01/M00 A3025 RMK A01 T00051001  RH  096%=      5-min Rain = 0
KRO1 080921Z 00010KT 00/M00 A3025 RMK A01 T00041001  RH  096%=      5-min Rain = 0.01
KRO1 080922Z 00011KT 00/M00 A3025 RMK A01 T00041001  RH  096%=      5-min Rain = 0
KRO1 080923Z 00012KT 00/M00 A3025 RMK A01 T00041001  RH  096%=      5-min Rain = 0
KRO1 080924Z 01011KT 00/M00 A3025 RMK A01 T00041002  RH  096%=      5-min Rain = 0
KRO1 080925Z 00013KT 00/M00 A3025 RMK A01 T00041001  RH  096%=      5-min Rain = 0
KRO1 080926Z 01010KT 00/M00 A3025 RMK A01 T00041002  RH  096%=      5-min Rain = 0
KRO1 080927Z 01012KT 00/M00 A3025 RMK A01 T00041001  RH  096%=      5-min Rain = 0
KRO1 080928Z 36012KT 01/M00 A3025 RMK A01 T00051001  RH  096%=      5-min Rain = 0
KRO1 080929Z 00012KT 00/M00 A3025 RMK A01 T00041002  RH  096%=      5-min Rain = 0
KRO1 080930Z 36013KT 01/M00 A3025 RMK A01 T00051001  RH  096%=      5-min Rain = 0
KRO1 080931Z 01014KT 00/M00 A3025 RMK A01 T00041002  RH  096%=      5-min Rain = 0
KRO1 080932Z 01015KT 00/M00 A3025 RMK A01 T00041002  RH  096%=      5-min Rain = 0
KRO1 080933Z 01014KT 00/M00 A3025 RMK A01 T00041002  RH  096%=      5-min Rain = 0
KRO1 080934Z 01011KT 00/M00 A3025 RMK A01 T00041002  RH  096%=      5-min Rain = 0
KRO1 080935Z 01011KT 00/M00 A3025 RMK A01 T00041002  RH  096%=      5-min Rain = 0
KRO1 080936Z 01014KT 00/M00 A3025 RMK A01 T00041002  RH  096%=      5-min Rain = 0
KRO1 080937Z 01012KT 00/M00 A3025 RMK A01 T00041002  RH  096%=      5-min Rain = 0
KRO1 080938Z 01013KT 00/M00 A3025 RMK A01 T00041002  RH  096%=      5-min Rain = 0
KRO1 080939Z 01013KT 01/M00 A3025 RMK A01 T00051002  RH  096%=      5-min Rain = 0
KRO1 080940Z 01012KT 00/M00 A3025 RMK A01 T00041002  RH  096%=      5-min Rain = 0
KRO1 080941Z 00014KT 00/M00 A3025 RMK A01 T00041002  RH  096%=      5-min Rain = 0
KRO1 080942Z 01012KT 00/M00 A3025 RMK A01 T00041002  RH  096%=      5-min Rain = 0
KRO1 080943Z 01012KT 00/M00 A3025 RMK A01 T00041002  RH  096%=      5-min Rain = 0
KRO1 080944Z 00009KT 00/M00 A3025 RMK A01 T00041002  RH  096%=      5-min Rain = 0
KRO1 080945Z 00011KT 00/M00 A3025 RMK A01 T00041002  RH  096%=      5-min Rain = 0
KRO1 080946Z 00010KT 00/M00 A3025 RMK A01 T00041001  RH  096%=      5-min Rain = 0
KRO1 080947Z 00010KT 00/M00 A3025 RMK A01 T00041002  RH  096%=      5-min Rain = 0
KRO1 080948Z 00011KT 00/M00 A3025 RMK A01 T00041001  RH  096%=      5-min Rain = 0
KRO1 080949Z 00009KT 00/M00 A3025 RMK A01 T00041001  RH  096%=      5-min Rain = 0
KRO1 080950Z 01011KT 01/M00 A3025 RMK A01 T00051001  RH  096%=      5-min Rain = 0
KRO1 080951Z 01014KT 00/M00 A3025 RMK A01 T00041001  RH  096%=      5-min Rain = 0
KRO1 080952Z 01012KT 00/M00 A3025 RMK A01 T00041002  RH  096%=      5-min Rain = 0
KRO1 080953Z 01012KT 01/M00 A3025 RMK A01 T00051001  RH  096%=      5-min Rain = 0
KRO1 080954Z 00012KT 00/M00 A3025 RMK A01 T00041002  RH  096%=      5-min Rain = 0
KRO1 080955Z 36010KT 00/M00 A3025 RMK A01 T00041002  RH  096%=      5-min Rain = 0.01
KRO1 080956Z 00009KT 00/M00 A3025 RMK A01 T00041001  RH  096%=      5-min Rain = 0
KRO1 080957Z 00010KT 01/00 A3025 RMK A01 T000500-0  RH  096%=      5-min Rain = 0
KRO1 080958Z 00011KT 01/M00 A3025 RMK A01 T00051001  RH  096%=      5-min Rain = 0
KRO1 080959Z 36011KT 00/M00 A3025 RMK A01 T00041001  RH  096%=      5-min Rain = 0
KRO1 081000Z 00012KT 00/M00 A3025 RMK A01 T00041001  RH  096%=      5-min Rain = 0
KRO1 081001Z 00009KT 00/M00 A3025 RMK A01 T00041001  RH  096%=      5-min Rain = 0
KRO1 081002Z 00009KT 00/M00 A3025 RMK A01 T00041001  RH  096%=      5-min Rain = 0
KRO1 081003Z 00011KT 00/M00 A3025 RMK A01 T00041001  RH  096%=      5-min Rain = 0
KRO1 081004Z 36009KT 00/M00 A3025 RMK A01 T00041001  RH  096%=      5-min Rain = 0.01
KRO1 081005Z 36011KT 00/M00 A3025 RMK A01 T00041001  RH  096%=      5-min Rain = 0
KRO1 081006Z 36013KT 00/M00 A3025 RMK A01 T00041001  RH  096%=      5-min Rain = 0
KRO1 081007Z 00013KT 00/M00 A3025 RMK A01 T00041002  RH  096%=      5-min Rain = 0
KRO1 081008Z 36012KT 00/M00 A3025 RMK A01 T00041002  RH  096%=      5-min Rain = 0
KRO1 081009Z 00011KT 00/M00 A3025 RMK A01 T00041002  RH  096%=      5-min Rain = 0
KRO1 081010Z 00012KT 00/M00 A3025 RMK A01 T00041001  RH  096%=      5-min Rain = 0.01
KRO1 081011Z 01014KT 00/M00 A3025 RMK A01 T00041002  RH  096%=      5-min Rain = 0
KRO1 081012Z 00013KT 00/M00 A3025 RMK A01 T00041001  RH  096%=      5-min Rain = 0
KRO1 081013Z 00014KT 00/M00 A3024 RMK A01 T00041002  RH  096%=      5-min Rain = 0
KRO1 081014Z 01012KT 00/M00 A3025 RMK A01 T00041002  RH  096%=      5-min Rain = 0
KRO1 081015Z 01010KT 00/M00 A3025 RMK A01 T00041002  RH  096%=      5-min Rain = 0
KRO1 081016Z 36012KT 00/M00 A3025 RMK A01 T00041001  RH  096%=      5-min Rain = 0
KRO1 081017Z 01011KT 00/M00 A3025 RMK A01 T00041001  RH  096%=      5-min Rain = 0
KRO1 081018Z 00011KT 00/M00 A3025 RMK A01 T00041002  RH  096%=      5-min Rain = 0
KRO1 081019Z 00014KT 00/M00 A3025 RMK A01 T00041002  RH  096%=      5-min Rain = 0.01
KRO1 081020Z 00017KT 00/M00 A3024 RMK A01 T00041002  RH  096%=      5-min Rain = 0
KRO1 081021Z 01014KT 00/M00 A3024 RMK A01 T00041002  RH  096%=      5-min Rain = 0
KRO1 081022Z 01014KT 00/M00 A3024 RMK A01 T00041003  RH  096%=      5-min Rain = 0
KRO1 081023Z 01014KT 00/M00 A3024 RMK A01 T00041002  RH  096%=      5-min Rain = 0
KRO1 081024Z 00015KT 00/M00 A3024 RMK A01 T00041002  RH  096%=      5-min Rain = 0
KRO1 081025Z 00014KT 00/M00 A3024 RMK A01 T00041003  RH  095%=      5-min Rain = 0
KRO1 081026Z 00012KT 00/M00 A3024 RMK A01 T00041003  RH  095%=      5-min Rain = 0
KRO1 081027Z 00012KT 00/M00 A3024 RMK A01 T00041002  RH  096%=      5-min Rain = 0
KRO1 081028Z 01012KT 00/M00 A3024 RMK A01 T00041002  RH  096%=      5-min Rain = 0
KRO1 081029Z 01012KT 00/M00 A3024 RMK A01 T00041002  RH  096%=      5-min Rain = 0
KRO1 081030Z 01012KT 00/M00 A3024 RMK A01 T00041002  RH  096%=      5-min Rain = 0
KRO1 081031Z 01011KT 00/M00 A3024 RMK A01 T00041002  RH  096%=      5-min Rain = 0.01
KRO1 081032Z 01013KT 00/M00 A3024 RMK A01 T00041002  RH  096%=      5-min Rain = 0
KRO1 081033Z 01011KT 00/M00 A3024 RMK A01 T00041002  RH  096%=      5-min Rain = 0
KRO1 081034Z 00011KT 00/M00 A3024 RMK A01 T00041002  RH  096%=      5-min Rain = 0
KRO1 081035Z 01014KT 00/M00 A3024 RMK A01 T00041002  RH  096%=      5-min Rain = 0
KRO1 081036Z 01013KT 00/M00 A3024 RMK A01 T00041002  RH  096%=      5-min Rain = 0
KRO1 081037Z 00013KT 00/M00 A3024 RMK A01 T00041002  RH  096%=      5-min Rain = 0
KRO1 081038Z 00011KT 00/M00 A3024 RMK A01 T00041002  RH  096%=      5-min Rain = 0
KRO1 081039Z 36009KT 00/M00 A3024 RMK A01 T00041002  RH  096%=      5-min Rain = 0
KRO1 081040Z 36009KT 00/M00 A3024 RMK A01 T00041002  RH  096%=      5-min Rain = 0
KRO1 081041Z 00008KT 00/M00 A3025 RMK A01 T00041001  RH  096%=      5-min Rain = 0
KRO1 081042Z 36012KT 00/M00 A3025 RMK A01 T00041001  RH  096%=      5-min Rain = 0
KRO1 081043Z 36010KT 00/M00 A3025 RMK A01 T00041001  RH  096%=      5-min Rain = 0
KRO1 081044Z 00012KT 00/M00 A3025 RMK A01 T00041001  RH  096%=      5-min Rain = 0
KRO1 081045Z 36011KT 00/M00 A3025 RMK A01 T00041001  RH  096%=      5-min Rain = 0
KRO1 081046Z 00012KT 00/M00 A3025 RMK A01 T00041001  RH  096%=      5-min Rain = 0
KRO1 081047Z 00013KT 00/M00 A3025 RMK A01 T00041002  RH  096%=      5-min Rain = 0
KRO1 081048Z 00013KT 00/M00 A3025 RMK A01 T00041002  RH  096%=      5-min Rain = 0
KRO1 081049Z 00012KT 00/M00 A3025 RMK A01 T00041002  RH  096%=      5-min Rain = 0.01
KRO1 081050Z 00012KT 00/M00 A3025 RMK A01 T00041002  RH  096%=      5-min Rain = 0
KRO1 081051Z 01011KT 00/M00 A3025 RMK A01 T00041002  RH  096%=      5-min Rain = 0
KRO1 081052Z 01012KT 00/M00 A3025 RMK A01 T00041002  RH  096%=      5-min Rain = 0
KRO1 081053Z 01012KT 00/M00 A3025 RMK A01 T00041002  RH  096%=      5-min Rain = 0
KRO1 081054Z 01011KT 00/M00 A3025 RMK A01 T00041002  RH  096%=      5-min Rain = 0
KRO1 081055Z 01010KT 00/M00 A3025 RMK A01 T00041002  RH  096%=      5-min Rain = 0
KRO1 081056Z 00012KT 00/M00 A3025 RMK A01 T00041002  RH  096%=      5-min Rain = 0
KRO1 081057Z 01013KT 00/M00 A3025 RMK A01 T00041002  RH  096%=      5-min Rain = 0
KRO1 081058Z 01011KT 00/M00 A3025 RMK A01 T00041002  RH  096%=      5-min Rain = 0
KRO1 081059Z 01013KT 00/M00 A3024 RMK A01 T00041002  RH  096%=      5-min Rain = 0
KRO1 081100Z 01012KT 00/M00 A3024 RMK A01 T00041002  RH  096%=      5-min Rain = 0
KRO1 081101Z 01012KT 00/M00 A3024 RMK A01 T00041002  RH  096%=      5-min Rain = 0
KRO1 081102Z 00009KT 00/M00 A3024 RMK A01 T00041002  RH  096%=      5-min Rain = 0
KRO1 081103Z 01012KT 00/M00 A3024 RMK A01 T00041002  RH  096%=      5-min Rain = 0.01
KRO1 081104Z 01013KT 00/M00 A3024 RMK A01 T00041002  RH  096%=      5-min Rain = 0
KRO1 081105Z 01012KT 00/M00 A3024 RMK A01 T00041002  RH  096%=      5-min Rain = 0
KRO1 081106Z 00012KT 00/M00 A3024 RMK A01 T00041002  RH  096%=      5-min Rain = 0
KRO1 081107Z 00011KT 00/M00 A3024 RMK A01 T00041002  RH  096%=      5-min Rain = 0
KRO1 081108Z 00011KT 00/M00 A3024 RMK A01 T00041002  RH  096%=      5-min Rain = 0.01
KRO1 081109Z 01011KT 00/M00 A3025 RMK A01 T00041002  RH  096%=      5-min Rain = 0
KRO1 081110Z 01011KT 00/M00 A3025 RMK A01 T00041002  RH  096%=      5-min Rain = 0
KRO1 081111Z 01010KT 00/M00 A3025 RMK A01 T00041002  RH  096%=      5-min Rain = 0
KRO1 081112Z 00009KT 00/M00 A3025 RMK A01 T00041002  RH  096%=      5-min Rain = 0.01
KRO1 081113Z 00010KT 00/M00 A3025 RMK A01 T00041002  RH  096%=      5-min Rain = 0
KRO1 081114Z 00010KT 00/M00 A3025 RMK A01 T00041001  RH  096%=      5-min Rain = 0
KRO1 081115Z 01012KT 00/M00 A3025 RMK A01 T00041002  RH  096%=      5-min Rain = 0
KRO1 081116Z 00010KT 00/M00 A3025 RMK A01 T00041002  RH  096%=      5-min Rain = 0.01
KRO1 081117Z 01010KT 00/M00 A3025 RMK A01 T00041001  RH  096%=      5-min Rain = 0
KRO1 081118Z 01011KT 00/M00 A3025 RMK A01 T00041002  RH  096%=      5-min Rain = 0
KRO1 081119Z 01013KT 00/M00 A3025 RMK A01 T00041002  RH  096%=      5-min Rain = 0
KRO1 081120Z 00012KT 00/M00 A3025 RMK A01 T00041001  RH  096%=      5-min Rain = 0.01
KRO1 081121Z 00010KT 00/M00 A3025 RMK A01 T00041002  RH  096%=      5-min Rain = 0
KRO1 081122Z 36010KT 00/M00 A3025 RMK A01 T00041002  RH  096%=      5-min Rain = 0
KRO1 081123Z 36010KT 00/M00 A3025 RMK A01 T00041001  RH  096%=      5-min Rain = 0
KRO1 081124Z 01012KT 00/M00 A3025 RMK A01 T00041002  RH  096%=      5-min Rain = 0.01
KRO1 081125Z 00011KT 00/M00 A3025 RMK A01 T00041002  RH  096%=      5-min Rain = 0
KRO1 081126Z 00012KT 00/M00 A3025 RMK A01 T00041001  RH  096%=      5-min Rain = 0
KRO1 081127Z 00010KT 00/M00 A3025 RMK A01 T00041002  RH  096%=      5-min Rain = 0
KRO1 081128Z 00009KT 00/M00 A3025 RMK A01 T00041002  RH  096%=      5-min Rain = 0
KRO1 081129Z 36008KT 00/M00 A3025 RMK A01 T00041002  RH  096%=      5-min Rain = 0.01
KRO1 081130Z 35009KT 00/M00 A3025 RMK A01 T00041001  RH  096%=      5-min Rain = 0
KRO1 081131Z 36011KT 00/M00 A3025 RMK A01 T00041001  RH  096%=      5-min Rain = 0
KRO1 081132Z 35011KT 00/M00 A3026 RMK A01 T00041001  RH  096%=      5-min Rain = 0
KRO1 081133Z 36013KT 00/M00 A3026 RMK A01 T00041001  RH  096%=      5-min Rain = 0
KRO1 081134Z 01011KT 00/M00 A3026 RMK A01 T00041002  RH  096%=      5-min Rain = 0
KRO1 081135Z 00010KT 00/M00 A3026 RMK A01 T00041002  RH  096%=      5-min Rain = 0
KRO1 081136Z 00011KT 00/M00 A3026 RMK A01 T00041002  RH  096%=      5-min Rain = 0.01
KRO1 081137Z 00009KT 00/M00 A3026 RMK A01 T00041002  RH  096%=      5-min Rain = 0
KRO1 081138Z 36008KT 00/M00 A3026 RMK A01 T00041002  RH  096%=      5-min Rain = 0
KRO1 081139Z 00012KT 00/M00 A3026 RMK A01 T00041002  RH  096%=      5-min Rain = 0
KRO1 081140Z 00010KT 00/M00 A3026 RMK A01 T00041001  RH  096%=      5-min Rain = 0
KRO1 081141Z 00010KT 00/M00 A3026 RMK A01 T00041001  RH  096%=      5-min Rain = 0
KRO1 081142Z 36011KT 00/M00 A3026 RMK A01 T00041001  RH  096%=      5-min Rain = 0
KRO1 081143Z 36013KT 00/M00 A3026 RMK A01 T00041001  RH  096%=      5-min Rain = 0
KRO1 081144Z 36012KT 00/M00 A3026 RMK A01 T00031002  RH  096%=      5-min Rain = 0
KRO1 081145Z 36010KT 00/M00 A3026 RMK A01 T00041002  RH  096%=      5-min Rain = 0
KRO1 081146Z 01012KT 00/M00 A3026 RMK A01 T00031002  RH  096%=      5-min Rain = 0
KRO1 081147Z 36012KT 00/M00 A3026 RMK A01 T00031002  RH  096%=      5-min Rain = 0
KRO1 081148Z 00011KT 00/M00 A3026 RMK A01 T00031002  RH  096%=      5-min Rain = 0.01
KRO1 081149Z 01013KT 00/M00 A3026 RMK A01 T00031002  RH  096%=      5-min Rain = 0
KRO1 081150Z 00010KT 00/M00 A3026 RMK A01 T00031003  RH  096%=      5-min Rain = 0
KRO1 081151Z 36013KT 00/M00 A3026 RMK A01 T00031003  RH  096%=      5-min Rain = 0
KRO1 081152Z 00014KT 00/M00 A3026 RMK A01 T00031003  RH  096%=      5-min Rain = 0
KRO1 081153Z 00013KT 00/M00 A3026 RMK A01 T00031003  RH  096%=      5-min Rain = 0
KRO1 081154Z 36011KT 00/M00 A3026 RMK A01 T00031003  RH  096%=      5-min Rain = 0
KRO1 081155Z 36011KT 00/M00 A3026 RMK A01 T00031004  RH  096%=      5-min Rain = 0
KRO1 081156Z 36010KT 00/M00 A3027 RMK A01 T00031003  RH  096%=      5-min Rain = 0
KRO1 081157Z 00010G15KT 00/M00 A3027 RMK A01 T00031004  RH  096%=      5-min Rain = 0
KRO1 081158Z 00012KT 00/M00 A3027 RMK A01 T00031003  RH  096%=      5-min Rain = 0
KRO1 081159Z 01012KT 00/M00 A3027 RMK A01 T00031004  RH  096%=      5-min Rain = 0
KRO1 081200Z 01011KT 00/M00 A3027 RMK A01 T00031004  RH  096%=      5-min Rain = 0
KRO1 081201Z 00010KT 00/M00 A3027 RMK A01 T00031004  RH  096%=      5-min Rain = 0
KRO1 081202Z 01009KT 00/M00 A3027 RMK A01 T00021004  RH  096%=      5-min Rain = 0
KRO1 081203Z 01010KT 00/M00 A3027 RMK A01 T00021004  RH  096%=      5-min Rain = 0
KRO1 081204Z 01010KT 00/M00 A3027 RMK A01 T00031004  RH  096%=      5-min Rain = 0
KRO1 081205Z 01010KT 00/M00 A3027 RMK A01 T00021004  RH  096%=      5-min Rain = 0
KRO1 081206Z 01012KT 00/M00 A3027 RMK A01 T00021004  RH  096%=      5-min Rain = 0
KRO1 081207Z 01010KT 00/M00 A3027 RMK A01 T00021004  RH  096%=      5-min Rain = 0
KRO1 081208Z 01011KT 00/M00 A3027 RMK A01 T00021004  RH  096%=      5-min Rain = 0
KRO1 081209Z 01010KT 00/M00 A3027 RMK A01 T00021004  RH  096%=      5-min Rain = 0
KRO1 081210Z 01010KT 00/M00 A3027 RMK A01 T00021004  RH  096%=      5-min Rain = 0
KRO1 081211Z 00008KT 00/M00 A3027 RMK A01 T00021004  RH  096%=      5-min Rain = 0
KRO1 081212Z 00010KT 00/M00 A3027 RMK A01 T00021004  RH  096%=      5-min Rain = 0
KRO1 081213Z 36011KT 00/M00 A3027 RMK A01 T00021003  RH  096%=      5-min Rain = 0
KRO1 081214Z 36011KT 00/M00 A3027 RMK A01 T00021004  RH  096%=      5-min Rain = 0
KRO1 081215Z 36011KT 00/M00 A3027 RMK A01 T00021004  RH  096%=      5-min Rain = 0
KRO1 081216Z 00011KT 00/M00 A3027 RMK A01 T00011004  RH  096%=      5-min Rain = 0
KRO1 081217Z 36012KT 00/M00 A3027 RMK A01 T00011004  RH  096%=      5-min Rain = 0
KRO1 081218Z 01012KT 00/M00 A3027 RMK A01 T00011004  RH  096%=      5-min Rain = 0
KRO1 081219Z 00010KT 00/M00 A3027 RMK A01 T00011004  RH  097%=      5-min Rain = 0
KRO1 081220Z 00010KT 00/00 A3027 RMK A01 T000000-4  RH  097%=      5-min Rain = 0
KRO1 081221Z 00009KT 00/00 A3027 RMK A01 T000000-4  RH  097%=      5-min Rain = 0
KRO1 081222Z 00012KT 00/00 A3027 RMK A01 T000000-4  RH  097%=      5-min Rain = 0
KRO1 081223Z 00011KT 00/00 A3027 RMK A01 T000000-4  RH  097%=      5-min Rain = 0
KRO1 081224Z 00012KT 00/00 A3027 RMK A01 T00-000-4  RH  097%=      5-min Rain = 0
KRO1 081225Z 00011KT 00/00 A3027 RMK A01 T00-000-4  RH  097%=      5-min Rain = 0
KRO1 081226Z 00011KT 00/00 A3027 RMK A01 T00-000-4  RH  097%=      5-min Rain = 0
KRO1 081227Z 00010KT 00/00 A3027 RMK A01 T00-000-4  RH  097%=      5-min Rain = 0
KRO1 081228Z 36010KT 00/00 A3027 RMK A01 T00-000-4  RH  097%=      5-min Rain = 0
KRO1 081229Z 00011KT M00/M00 A3027 RMK A01 T10011004  RH  097%=      5-min Rain = 0
KRO1 081230Z 00012KT M00/M00 A3027 RMK A01 T10011004  RH  097%=      5-min Rain = 0
KRO1 081231Z 36011KT M00/M00 A3027 RMK A01 T10011004  RH  097%=      5-min Rain = 0
KRO1 081232Z 00011KT M00/M00 A3027 RMK A01 T10011004  RH  097%=      5-min Rain = 0
KRO1 081233Z 00012KT M00/M01 A3027 RMK A01 T10011005  RH  097%=      5-min Rain = 0
KRO1 081234Z 00012KT M00/M01 A3027 RMK A01 T10011005  RH  097%=      5-min Rain = 0
KRO1 081235Z 01012KT M00/M01 A3027 RMK A01 T10011005  RH  097%=      5-min Rain = 0
KRO1 081236Z 00014KT M00/M01 A3027 RMK A01 T10011005  RH  097%=      5-min Rain = 0
KRO1 081237Z 01015KT M00/M01 A3027 RMK A01 T10021005  RH  097%=      5-min Rain = 0
KRO1 081238Z 00013KT M00/M01 A3027 RMK A01 T10021005  RH  097%=      5-min Rain = 0
KRO1 081239Z 01012KT M00/M01 A3027 RMK A01 T10021006  RH  097%=      5-min Rain = 0
KRO1 081240Z 01012KT M00/M01 A3027 RMK A01 T10021006  RH  097%=      5-min Rain = 0
KRO1 081241Z 01013KT M00/M01 A3027 RMK A01 T10021006  RH  097%=      5-min Rain = 0
KRO1 081242Z 01013KT M00/M01 A3027 RMK A01 T10031006  RH  097%=      5-min Rain = 0
KRO1 081243Z 01013KT M00/M01 A3027 RMK A01 T10031006  RH  098%=      5-min Rain = 0
KRO1 081244Z 00011KT M00/M01 A3027 RMK A01 T10031006  RH  098%=      5-min Rain = 0
KRO1 081245Z 00011KT M00/M01 A3027 RMK A01 T10031006  RH  098%=      5-min Rain = 0
KRO1 081246Z 00010KT M00/M01 A3027 RMK A01 T10031006  RH  098%=      5-min Rain = 0
KRO1 081247Z 00010KT M00/M01 A3027 RMK A01 T10021006  RH  098%=      5-min Rain = 0
KRO1 081248Z 01010KT M00/M01 A3027 RMK A01 T10021006  RH  098%=      5-min Rain = 0
KRO1 081249Z 00010KT M00/M01 A3027 RMK A01 T10031006  RH  098%=      5-min Rain = 0
KRO1 081250Z 00008KT M00/M01 A3027 RMK A01 T10021006  RH  098%=      5-min Rain = 0
KRO1 081251Z 00009KT M00/M01 A3027 RMK A01 T10031006  RH  098%=      5-min Rain = 0
KRO1 081252Z 36011KT M00/M01 A3027 RMK A01 T10031006  RH  098%=      5-min Rain = 0
KRO1 081253Z 36010KT M00/M01 A3027 RMK A01 T10031006  RH  098%=      5-min Rain = 0
KRO1 081254Z 36009KT M00/M01 A3027 RMK A01 T10021005  RH  098%=      5-min Rain = 0
KRO1 081255Z 36009KT M00/M01 A3027 RMK A01 T10031006  RH  098%=      5-min Rain = 0
KRO1 081256Z 36008KT M00/M01 A3027 RMK A01 T10021005  RH  098%=      5-min Rain = 0
KRO1 081257Z 36009KT M00/M01 A3027 RMK A01 T10031006  RH  098%=      5-min Rain = 0
KRO1 081258Z 35008KT M00/M01 A3028 RMK A01 T10021005  RH  098%=      5-min Rain = 0
KRO1 081259Z 35010KT M00/M01 A3028 RMK A01 T10031005  RH  098%=      5-min Rain = 0
KRO1 081300Z 35008KT M00/M01 A3028 RMK A01 T10031005  RH  098%=      5-min Rain = 0
KRO1 081301Z 35010KT M00/M01 A3028 RMK A01 T10021005  RH  098%=      5-min Rain = 0
KRO1 081302Z 35009KT M00/M01 A3028 RMK A01 T10021005  RH  098%=      5-min Rain = 0
KRO1 081303Z 35009KT M00/M01 A3028 RMK A01 T10031006  RH  098%=      5-min Rain = 0
KRO1 081304Z 35010KT M00/M01 A3028 RMK A01 T10021005  RH  098%=      5-min Rain = 0
KRO1 081305Z 35012KT M00/M01 A3028 RMK A01 T10031005  RH  098%=      5-min Rain = 0
KRO1 081306Z 35011KT M00/M01 A3028 RMK A01 T10031006  RH  098%=      5-min Rain = 0
KRO1 081307Z 35010KT M00/M01 A3028 RMK A01 T10031006  RH  098%=      5-min Rain = 0
KRO1 081308Z 35009KT M00/M01 A3028 RMK A01 T10031006  RH  098%=      5-min Rain = 0
KRO1 081309Z 35011KT M00/M01 A3028 RMK A01 T10031006  RH  098%=      5-min Rain = 0
KRO1 081310Z 35010KT M00/M01 A3028 RMK A01 T10031006  RH  098%=      5-min Rain = 0
KRO1 081311Z 34011KT M00/M01 A3028 RMK A01 T10031006  RH  098%=      5-min Rain = 0
KRO1 081312Z 35011KT M00/M01 A3028 RMK A01 T10031006  RH  098%=      5-min Rain = 0
KRO1 081313Z 35010KT M00/M01 A3028 RMK A01 T10031006  RH  098%=      5-min Rain = 0
KRO1 081314Z 35009KT M00/M01 A3028 RMK A01 T10031006  RH  098%=      5-min Rain = 0
KRO1 081315Z 35009KT M00/M01 A3029 RMK A01 T10031006  RH  098%=      5-min Rain = 0
KRO1 081316Z 34009KT M00/M01 A3029 RMK A01 T10031006  RH  098%=      5-min Rain = 0
KRO1 081317Z 34008KT M00/M01 A3029 RMK A01 T10041006  RH  098%=      5-min Rain = 0
KRO1 081318Z 34009KT M00/M01 A3029 RMK A01 T10031006  RH  098%=      5-min Rain = 0
KRO1 081319Z 34009KT M00/M01 A3029 RMK A01 T10031006  RH  098%=      5-min Rain = 0
KRO1 081320Z 34010KT M00/M01 A3029 RMK A01 T10041006  RH  098%=      5-min Rain = 0
KRO1 081321Z 34011KT M00/M01 A3029 RMK A01 T10031006  RH  098%=      5-min Rain = 0
KRO1 081322Z 34010KT M00/M01 A3029 RMK A01 T10031006  RH  098%=      5-min Rain = 0
KRO1 081323Z 34009KT M00/M01 A3029 RMK A01 T10041006  RH  098%=      5-min Rain = 0
KRO1 081324Z 34010KT M00/M01 A3029 RMK A01 T10031006  RH  098%=      5-min Rain = 0
KRO1 081325Z 35010KT M00/M01 A3029 RMK A01 T10031006  RH  098%=      5-min Rain = 0
KRO1 081326Z 34008KT M00/M01 A3029 RMK A01 T10031006  RH  098%=      5-min Rain = 0
KRO1 081327Z 34009KT M00/M01 A3029 RMK A01 T10041006  RH  098%=      5-min Rain = 0
KRO1 081328Z 35008KT M00/M01 A3029 RMK A01 T10041006  RH  098%=      5-min Rain = 0
KRO1 081329Z 34009KT M00/M01 A3029 RMK A01 T10031006  RH  098%=      5-min Rain = 0
KRO1 081330Z 34008KT M00/M01 A3029 RMK A01 T10031006  RH  098%=      5-min Rain = 0
KRO1 081331Z 34007KT M00/M01 A3029 RMK A01 T10031006  RH  098%=      5-min Rain = 0
KRO1 081332Z 34008KT M00/M01 A3029 RMK A01 T10031006  RH  098%=      5-min Rain = 0
KRO1 081333Z 33009KT M00/M01 A3029 RMK A01 T10041007  RH  098%=      5-min Rain = 0
KRO1 081334Z 33009KT M00/M01 A3029 RMK A01 T10041007  RH  098%=      5-min Rain = 0
KRO1 081335Z 33009KT M00/M01 A3029 RMK A01 T10041006  RH  098%=      5-min Rain = 0
KRO1 081336Z 34009KT M00/M01 A3029 RMK A01 T10041007  RH  098%=      5-min Rain = 0
KRO1 081337Z 34009KT M00/M01 A3029 RMK A01 T10041007  RH  098%=      5-min Rain = 0
KRO1 081338Z 34010KT M00/M01 A3029 RMK A01 T10041007  RH  098%=      5-min Rain = 0
KRO1 081339Z 35009KT M01/M01 A3029 RMK A01 T10051008  RH  098%=      5-min Rain = 0
KRO1 081340Z 34010KT M01/M01 A3029 RMK A01 T10051007  RH  098%=      5-min Rain = 0
KRO1 081341Z 34010KT M01/M01 A3029 RMK A01 T10051007  RH  098%=      5-min Rain = 0
KRO1 081342Z 34009KT M01/M01 A3029 RMK A01 T10051008  RH  098%=      5-min Rain = 0
KRO1 081343Z 35010KT M01/M01 A3029 RMK A01 T10051008  RH  098%=      5-min Rain = 0
KRO1 081344Z 35009KT M01/M01 A3029 RMK A01 T10051008  RH  098%=      5-min Rain = 0
KRO1 081345Z 35011KT M01/M01 A3029 RMK A01 T10051008  RH  098%=      5-min Rain = 0
KRO1 081346Z 35012KT M01/M01 A3029 RMK A01 T10061008  RH  098%=      5-min Rain = 0
KRO1 081347Z 35011KT M01/M01 A303 RMK A01 T10061008  RH  098%=      5-min Rain = 0
KRO1 081348Z 35011KT M01/M01 A303 RMK A01 T10061008  RH  098%=      5-min Rain = 0
KRO1 081349Z 36012KT M01/M01 A303 RMK A01 T10061009  RH  098%=      5-min Rain = 0
KRO1 081350Z 36012KT M01/M01 A303 RMK A01 T10061009  RH  098%=      5-min Rain = 0
KRO1 081351Z 35011KT M01/M01 A303 RMK A01 T10061009  RH  098%=      5-min Rain = 0
KRO1 081352Z 36011KT M01/M01 A303 RMK A01 T10061009  RH  098%=      5-min Rain = 0
KRO1 081353Z 00010KT M01/M01 A303 RMK A01 T10061009  RH  098%=      5-min Rain = 0
KRO1 081354Z 36010KT M01/M01 A303 RMK A01 T10061009  RH  098%=      5-min Rain = 0
KRO1 081355Z 36009KT M01/M01 A303 RMK A01 T10061009  RH  098%=      5-min Rain = 0
KRO1 081356Z 36009KT M01/M01 A303 RMK A01 T10061008  RH  098%=      5-min Rain = 0
KRO1 081357Z 35009KT M01/M01 A303 RMK A01 T10061009  RH  098%=      5-min Rain = 0
KRO1 081358Z 36009KT M01/M01 A303 RMK A01 T10061009  RH  098%=      5-min Rain = 0
KRO1 081359Z 35007KT M01/M01 A303 RMK A01 T10061009  RH  098%=      5-min Rain = 0
KRO1 081400Z 35008KT M01/M01 A303 RMK A01 T10061009  RH  098%=      5-min Rain = 0
KRO1 081401Z 34007KT M01/M01 A303 RMK A01 T10061009  RH  098%=      5-min Rain = 0
KRO1 081402Z 34008KT M01/M01 A303 RMK A01 T10061009  RH  098%=      5-min Rain = 0
KRO1 081403Z 34007KT M01/M01 A303 RMK A01 T10061009  RH  098%=      5-min Rain = 0
KRO1 081404Z 34007KT M01/M01 A303 RMK A01 T10061009  RH  098%=      5-min Rain = 0
KRO1 081405Z 34007KT M01/M01 A303 RMK A01 T10061009  RH  098%=      5-min Rain = 0
KRO1 081406Z 34007KT M01/M01 A303 RMK A01 T10061009  RH  098%=      5-min Rain = 0
KRO1 081407Z 34008KT M01/M01 A303 RMK A01 T10061009  RH  098%=      5-min Rain = 0
KRO1 081408Z 34009KT M01/M01 A303 RMK A01 T10061009  RH  098%=      5-min Rain = 0
KRO1 081409Z 34009KT M01/M01 A303 RMK A01 T10061009  RH  098%=      5-min Rain = 0
KRO1 081410Z 35010KT M01/M01 A3031 RMK A01 T10061009  RH  098%=      5-min Rain = 0
KRO1 081411Z 35010KT M01/M01 A3031 RMK A01 T10061009  RH  098%=      5-min Rain = 0
KRO1 081412Z 36010KT M01/M01 A3031 RMK A01 T10071009  RH  098%=      5-min Rain = 0
KRO1 081413Z 36012KT M01/M01 A3031 RMK A01 T10071009  RH  098%=      5-min Rain = 0
KRO1 081414Z 36012KT M01/M01 A3031 RMK A01 T10071009  RH  098%=      5-min Rain = 0
KRO1 081415Z 36012KT M01/M01 A3031 RMK A01 T10071010  RH  098%=      5-min Rain = 0
KRO1 081416Z 36011KT M01/M01 A3031 RMK A01 T10071010  RH  098%=      5-min Rain = 0
KRO1 081417Z 36012KT M01/M01 A3031 RMK A01 T10071010  RH  098%=      5-min Rain = 0
KRO1 081418Z 36012KT M01/M01 A3031 RMK A01 T10081010  RH  098%=      5-min Rain = 0
KRO1 081419Z 36012KT M01/M01 A3031 RMK A01 T10081010  RH  098%=      5-min Rain = 0
KRO1 081420Z 35012KT M01/M01 A3031 RMK A01 T10081010  RH  098%=      5-min Rain = 0
KRO1 081421Z 36010KT M01/M01 A3031 RMK A01 T10071010  RH  098%=      5-min Rain = 0
KRO1 081422Z 35011KT M01/M01 A3031 RMK A01 T10081010  RH  098%=      5-min Rain = 0
KRO1 081423Z 35010KT M01/M01 A3031 RMK A01 T10071010  RH  098%=      5-min Rain = 0
KRO1 081424Z 35009KT M01/M01 A3031 RMK A01 T10081010  RH  098%=      5-min Rain = 0
KRO1 081425Z 35009KT M01/M01 A3031 RMK A01 T10071010  RH  098%=      5-min Rain = 0
KRO1 081426Z 35009KT M01/M01 A3031 RMK A01 T10081010  RH  098%=      5-min Rain = 0
KRO1 081427Z 35009KT M01/M01 A3031 RMK A01 T10071010  RH  098%=      5-min Rain = 0
KRO1 081428Z 34010KT M01/M01 A3031 RMK A01 T10071010  RH  098%=      5-min Rain = 0
KRO1 081429Z 34010KT M01/M01 A3031 RMK A01 T10071010  RH  098%=      5-min Rain = 0
KRO1 081430Z 34010KT M01/M01 A3031 RMK A01 T10071010  RH  098%=      5-min Rain = 0
KRO1 081431Z 35010KT M01/M01 A3031 RMK A01 T10071010  RH  098%=      5-min Rain = 0
KRO1 081432Z 34009KT M01/M01 A3031 RMK A01 T10081010  RH  098%=      5-min Rain = 0
KRO1 081433Z 34010KT M01/M01 A3031 RMK A01 T10071010  RH  098%=      5-min Rain = 0
KRO1 081434Z 34010KT M01/M01 A3031 RMK A01 T10081010  RH  098%=      5-min Rain = 0
KRO1 081435Z 34009KT M01/M01 A3031 RMK A01 T10071010  RH  098%=      5-min Rain = 0
KRO1 081436Z 34009KT M01/M01 A3031 RMK A01 T10081010  RH  098%=      5-min Rain = 0
KRO1 081437Z 33009KT M01/M01 A3031 RMK A01 T10081010  RH  098%=      5-min Rain = 0
KRO1 081438Z 34009KT M01/M01 A3031 RMK A01 T10081010  RH  098%=      5-min Rain = 0
KRO1 081439Z 34010KT M01/M01 A3031 RMK A01 T10081010  RH  098%=      5-min Rain = 0
KRO1 081440Z 34009KT M01/M01 A3031 RMK A01 T10081010  RH  098%=      5-min Rain = 0
KRO1 081441Z 34012KT M01/M01 A3031 RMK A01 T10071010  RH  098%=      5-min Rain = 0
KRO1 081442Z 34012KT M01/M01 A3031 RMK A01 T10081010  RH  098%=      5-min Rain = 0
KRO1 081443Z 34011KT M01/M01 A3031 RMK A01 T10081010  RH  098%=      5-min Rain = 0
KRO1 081444Z 34010KT M01/M01 A3032 RMK A01 T10081010  RH  098%=      5-min Rain = 0
KRO1 081445Z 35009KT M01/M01 A3032 RMK A01 T10081010  RH  098%=      5-min Rain = 0
KRO1 081446Z 35010KT M01/M01 A3032 RMK A01 T10081011  RH  098%=      5-min Rain = 0
KRO1 081447Z 35010KT M01/M01 A3032 RMK A01 T10081010  RH  098%=      5-min Rain = 0
KRO1 081448Z 35011KT M01/M01 A3032 RMK A01 T10081010  RH  098%=      5-min Rain = 0
KRO1 081449Z 35011KT M01/M01 A3032 RMK A01 T10071010  RH  098%=      5-min Rain = 0
KRO1 081450Z 35012KT M01/M01 A3032 RMK A01 T10081010  RH  098%=      5-min Rain = 0
KRO1 081451Z 35011KT M01/M01 A3032 RMK A01 T10081010  RH  098%=      5-min Rain = 0
KRO1 081452Z 35011KT M01/M01 A3032 RMK A01 T10081010  RH  098%=      5-min Rain = 0
KRO1 081453Z 35010KT M01/M01 A3032 RMK A01 T10071010  RH  098%=      5-min Rain = 0
KRO1 081454Z 35011KT M01/M01 A3032 RMK A01 T10081011  RH  098%=      5-min Rain = 0
KRO1 081455Z 35012KT M01/M01 A3032 RMK A01 T10071010  RH  098%=      5-min Rain = 0
KRO1 081456Z 35012KT M01/M01 A3032 RMK A01 T10081010  RH  098%=      5-min Rain = 0
KRO1 081457Z 35010KT M01/M01 A3032 RMK A01 T10081010  RH  098%=      5-min Rain = 0
KRO1 081458Z 35010KT M01/M01 A3032 RMK A01 T10081010  RH  098%=      5-min Rain = 0
KRO1 081459Z 35012KT M01/M01 A3032 RMK A01 T10081010  RH  098%=      5-min Rain = 0
KRO1 081500Z 35010KT M01/M01 A3032 RMK A01 T10071010  RH  098%=      5-min Rain = 0
KRO1 081501Z 35011KT M01/M01 A3032 RMK A01 T10071010  RH  098%=      5-min Rain = 0
KRO1 081502Z 35011KT M01/M01 A3032 RMK A01 T10071010  RH  098%=      5-min Rain = 0
KRO1 081503Z 35011KT M01/M01 A3032 RMK A01 T10081010  RH  098%=      5-min Rain = 0
KRO1 081504Z 35012KT M01/M01 A3032 RMK A01 T10081010  RH  098%=      5-min Rain = 0
KRO1 081505Z 35011KT M01/M01 A3032 RMK A01 T10081010  RH  098%=      5-min Rain = 0
KRO1 081506Z 35011KT M01/M01 A3032 RMK A01 T10071010  RH  098%=      5-min Rain = 0
KRO1 081507Z 35011KT M01/M01 A3032 RMK A01 T10081010  RH  098%=      5-min Rain = 0
KRO1 081508Z 34012KT M01/M01 A3032 RMK A01 T10071010  RH  098%=      5-min Rain = 0
KRO1 081509Z 35013KT M01/M01 A3032 RMK A01 T10081011  RH  098%=      5-min Rain = 0
KRO1 081510Z 34011KT M01/M01 A3032 RMK A01 T10071010  RH  098%=      5-min Rain = 0
KRO1 081511Z 35012KT M01/M01 A3032 RMK A01 T10071010  RH  098%=      5-min Rain = 0
KRO1 081512Z 35011KT M01/M01 A3032 RMK A01 T10081011  RH  098%=      5-min Rain = 0
KRO1 081513Z 35011KT M01/M01 A3032 RMK A01 T10081011  RH  098%=      5-min Rain = 0
KRO1 081514Z 35010KT M01/M01 A3033 RMK A01 T10081011  RH  098%=      5-min Rain = 0
KRO1 081515Z 35010KT M01/M01 A3033 RMK A01 T10081011  RH  098%=      5-min Rain = 0
KRO1 081516Z 35011KT M01/M01 A3033 RMK A01 T10081011  RH  098%=      5-min Rain = 0
KRO1 081517Z 35010KT M01/M01 A3033 RMK A01 T10081011  RH  098%=      5-min Rain = 0
KRO1 081518Z 35010KT M01/M01 A3033 RMK A01 T10071010  RH  098%=      5-min Rain = 0
KRO1 081519Z 35009KT M01/M01 A3033 RMK A01 T10071010  RH  098%=      5-min Rain = 0
KRO1 081520Z 35010KT M01/M01 A3033 RMK A01 T10071010  RH  098%=      5-min Rain = 0
KRO1 081521Z 35010KT M01/M01 A3033 RMK A01 T10071010  RH  098%=      5-min Rain = 0
KRO1 081522Z 35008KT M01/M01 A3033 RMK A01 T10071010  RH  098%=      5-min Rain = 0
KRO1 081523Z 34009KT M01/M01 A3033 RMK A01 T10071010  RH  098%=      5-min Rain = 0
KRO1 081524Z 35010KT M01/M01 A3033 RMK A01 T10071010  RH  098%=      5-min Rain = 0
KRO1 081525Z 35008KT M01/M01 A3033 RMK A01 T10071010  RH  098%=      5-min Rain = 0
KRO1 081526Z 34008KT M01/M01 A3033 RMK A01 T10071010  RH  098%=      5-min Rain = 0
KRO1 081527Z 34009KT M01/M01 A3033 RMK A01 T10061009  RH  098%=      5-min Rain = 0
KRO1 081528Z 34010KT M01/M01 A3033 RMK A01 T10061009  RH  098%=      5-min Rain = 0
KRO1 081529Z 34009KT M01/M01 A3033 RMK A01 T10061009  RH  098%=      5-min Rain = 0
KRO1 081530Z 34009KT M01/M01 A3033 RMK A01 T10061009  RH  098%=      5-min Rain = 0
KRO1 081531Z 35009KT M01/M01 A3033 RMK A01 T10061009  RH  098%=      5-min Rain = 0
KRO1 081532Z 34010KT M01/M01 A3033 RMK A01 T10061009  RH  098%=      5-min Rain = 0
KRO1 081533Z 34012KT M01/M01 A3033 RMK A01 T10061009  RH  098%=      5-min Rain = 0
KRO1 081534Z 35012KT M01/M01 A3033 RMK A01 T10061009  RH  098%=      5-min Rain = 0
KRO1 081535Z 35010KT M01/M01 A3033 RMK A01 T10061009  RH  098%=      5-min Rain = 0
KRO1 081536Z 35012KT M01/M01 A3033 RMK A01 T10061009  RH  098%=      5-min Rain = 0
KRO1 081537Z 35012KT M01/M01 A3033 RMK A01 T10061009  RH  098%=      5-min Rain = 0
KRO1 081538Z 35012KT M01/M01 A3033 RMK A01 T10051009  RH  098%=      5-min Rain = 0
KRO1 081539Z 35012KT M01/M01 A3033 RMK A01 T10061009  RH  098%=      5-min Rain = 0
KRO1 081540Z 35012KT M01/M01 A3033 RMK A01 T10061009  RH  098%=      5-min Rain = 0
KRO1 081541Z 35012KT M01/M01 A3033 RMK A01 T10051009  RH  098%=      5-min Rain = 0
KRO1 081542Z 35011KT M01/M01 A3033 RMK A01 T10061009  RH  098%=      5-min Rain = 0
KRO1 081543Z 34011KT M01/M01 A3033 RMK A01 T10061009  RH  098%=      5-min Rain = 0
KRO1 081544Z 34012KT M01/M01 A3033 RMK A01 T10061009  RH  098%=      5-min Rain = 0
KRO1 081545Z 34011KT M01/M01 A3033 RMK A01 T10061009  RH  098%=      5-min Rain = 0
KRO1 081546Z 34010KT M01/M01 A3033 RMK A01 T10051009  RH  098%=      5-min Rain = 0
KRO1 081547Z 34009KT M01/M01 A3033 RMK A01 T10061009  RH  098%=      5-min Rain = 0
KRO1 081548Z 34011KT M01/M01 A3033 RMK A01 T10061009  RH  098%=      5-min Rain = 0
KRO1 081549Z 34011KT M01/M01 A3033 RMK A01 T10061009  RH  098%=      5-min Rain = 0
KRO1 081550Z 34011KT M01/M01 A3033 RMK A01 T10061009  RH  098%=      5-min Rain = 0
KRO1 081551Z 34011KT M01/M01 A3033 RMK A01 T10051009  RH  098%=      5-min Rain = 0
KRO1 081552Z 34010KT M01/M01 A3033 RMK A01 T10061009  RH  098%=      5-min Rain = 0
KRO1 081553Z 34011KT M01/M01 A3033 RMK A01 T10061009  RH  098%=      5-min Rain = 0
KRO1 081554Z 34011KT M01/M01 A3033 RMK A01 T10061009  RH  098%=      5-min Rain = 0
KRO1 081555Z 34011KT M01/M01 A3033 RMK A01 T10061009  RH  098%=      5-min Rain = 0
KRO1 081556Z 34011KT M01/M01 A3033 RMK A01 T10061009  RH  098%=      5-min Rain = 0
KRO1 081557Z 34010KT M01/M01 A3033 RMK A01 T10051009  RH  098%=      5-min Rain = 0
KRO1 081558Z 34011KT M01/M01 A3033 RMK A01 T10061009  RH  098%=      5-min Rain = 0
KRO1 081559Z 34009KT M01/M01 A3033 RMK A01 T10061009  RH  098%=      5-min Rain = 0
KRO1 081600Z 33008KT M01/M01 A3033 RMK A01 T10061009  RH  098%=      5-min Rain = 0
KRO1 081601Z 34010KT M01/M01 A3033 RMK A01 T10051008  RH  098%=      5-min Rain = 0
KRO1 081602Z 34009KT M01/M01 A3033 RMK A01 T10051008  RH  098%=      5-min Rain = 0
KRO1 081603Z 34011KT M01/M01 A3033 RMK A01 T10051008  RH  098%=      5-min Rain = 0
KRO1 081604Z 34013KT M01/M01 A3033 RMK A01 T10051009  RH  098%=      5-min Rain = 0
KRO1 081605Z 34013KT M01/M01 A3033 RMK A01 T10051009  RH  098%=      5-min Rain = 0
KRO1 081606Z 34011KT M01/M01 A3033 RMK A01 T10051009  RH  098%=      5-min Rain = 0
KRO1 081607Z 35012KT M01/M01 A3033 RMK A01 T10051009  RH  098%=      5-min Rain = 0
KRO1 081608Z 34012KT M01/M01 A3033 RMK A01 T10051009  RH  098%=      5-min Rain = 0
KRO1 081609Z 34011KT M01/M01 A3033 RMK A01 T10061009  RH  098%=      5-min Rain = 0
KRO1 081610Z 35012KT M01/M01 A3033 RMK A01 T10061009  RH  097%=      5-min Rain = 0
KRO1 081611Z 34012KT M01/M01 A3033 RMK A01 T10061009  RH  097%=      5-min Rain = 0
KRO1 081612Z 35013KT M01/M01 A3033 RMK A01 T10061009  RH  097%=      5-min Rain = 0
KRO1 081613Z 34013KT M01/M01 A3033 RMK A01 T10061010  RH  097%=      5-min Rain = 0
KRO1 081614Z 35011KT M01/M01 A3033 RMK A01 T10061009  RH  097%=      5-min Rain = 0
KRO1 081615Z 35013KT M01/M01 A3033 RMK A01 T10051009  RH  097%=      5-min Rain = 0
KRO1 081616Z 34011KT M01/M01 A3033 RMK A01 T10061009  RH  097%=      5-min Rain = 0
KRO1 081617Z 34010KT M01/M01 A3033 RMK A01 T10061009  RH  097%=      5-min Rain = 0
KRO1 081618Z 34010KT M01/M01 A3033 RMK A01 T10061009  RH  097%=      5-min Rain = 0
KRO1 081619Z 34011KT M01/M01 A3033 RMK A01 T10061009  RH  097%=      5-min Rain = 0
KRO1 081620Z 34013KT M01/M01 A3033 RMK A01 T10061009  RH  097%=      5-min Rain = 0
KRO1 081621Z 34010KT M01/M01 A3033 RMK A01 T10061010  RH  097%=      5-min Rain = 0
KRO1 081622Z 34012KT M01/M01 A3033 RMK A01 T10061010  RH  097%=      5-min Rain = 0
KRO1 081623Z 34011KT M01/M01 A3033 RMK A01 T10061009  RH  097%=      5-min Rain = 0
KRO1 081624Z 34011KT M01/M01 A3033 RMK A01 T10061009  RH  097%=      5-min Rain = 0
KRO1 081625Z 35012KT M01/M01 A3033 RMK A01 T10061009  RH  097%=      5-min Rain = 0
KRO1 081626Z 34010KT M01/M01 A3034 RMK A01 T10061009  RH  097%=      5-min Rain = 0
KRO1 081627Z 34009KT M01/M01 A3034 RMK A01 T10051009  RH  097%=      5-min Rain = 0
KRO1 081628Z 34010KT M01/M01 A3034 RMK A01 T10051009  RH  097%=      5-min Rain = 0
KRO1 081629Z 34009KT M01/M01 A3034 RMK A01 T10051009  RH  097%=      5-min Rain = 0
KRO1 081630Z 34009KT M01/M01 A3034 RMK A01 T10051009  RH  097%=      5-min Rain = 0
KRO1 081631Z 35012KT M00/M01 A3034 RMK A01 T10041008  RH  097%=      5-min Rain = 0
KRO1 081632Z 34012KT M01/M01 A3034 RMK A01 T10051008  RH  097%=      5-min Rain = 0
KRO1 081633Z 33009KT M00/M01 A3034 RMK A01 T10041008  RH  097%=      5-min Rain = 0
KRO1 081634Z 34009KT M00/M01 A3034 RMK A01 T10041008  RH  097%=      5-min Rain = 0
KRO1 081635Z 34010KT M00/M01 A3034 RMK A01 T10041008  RH  097%=      5-min Rain = 0
KRO1 081636Z 33011KT M00/M01 A3034 RMK A01 T10041008  RH  097%=      5-min Rain = 0
KRO1 081637Z 33011KT M00/M01 A3034 RMK A01 T10041008  RH  097%=      5-min Rain = 0
KRO1 081638Z 34011KT M00/M01 A3034 RMK A01 T10041008  RH  097%=      5-min Rain = 0
KRO1 081639Z 34011KT M00/M01 A3034 RMK A01 T10041008  RH  097%=      5-min Rain = 0
KRO1 081640Z 34012KT M00/M01 A3034 RMK A01 T10041008  RH  097%=      5-min Rain = 0
KRO1 081641Z 34012KT M00/M01 A3034 RMK A01 T10041008  RH  097%=      5-min Rain = 0
KRO1 081642Z 34011KT M00/M01 A3034 RMK A01 T10041008  RH  097%=      5-min Rain = 0
KRO1 081643Z 34011KT M00/M01 A3034 RMK A01 T10041008  RH  097%=      5-min Rain = 0
KRO1 081644Z 34011KT M00/M01 A3034 RMK A01 T10041008  RH  097%=      5-min Rain = 0
KRO1 081645Z 34012KT M00/M01 A3034 RMK A01 T10041008  RH  097%=      5-min Rain = 0
KRO1 081646Z 34011KT M00/M01 A3034 RMK A01 T10041008  RH  097%=      5-min Rain = 0
KRO1 081647Z 34010KT M00/M01 A3034 RMK A01 T10031008  RH  097%=      5-min Rain = 0
KRO1 081648Z 34010KT M00/M01 A3034 RMK A01 T10031008  RH  097%=      5-min Rain = 0
KRO1 081649Z 34009KT M00/M01 A3034 RMK A01 T10031007  RH  097%=      5-min Rain = 0
KRO1 081650Z 34009KT M00/M01 A3034 RMK A01 T10021007  RH  097%=      5-min Rain = 0
KRO1 081651Z 33011KT M00/M01 A3034 RMK A01 T10021007  RH  097%=      5-min Rain = 0
KRO1 081652Z 32011KT M00/M01 A3034 RMK A01 T10011006  RH  097%=      5-min Rain = 0
KRO1 081653Z 33013KT M00/M01 A3034 RMK A01 T10021006  RH  097%=      5-min Rain = 0
KRO1 081654Z 34013KT M00/M01 A3034 RMK A01 T10021007  RH  097%=      5-min Rain = 0
KRO1 081655Z 33010KT M00/M01 A3034 RMK A01 T10031007  RH  097%=      5-min Rain = 0
KRO1 081656Z 34010KT M00/M01 A3034 RMK A01 T10031007  RH  097%=      5-min Rain = 0
KRO1 081657Z 34012KT M00/M01 A3034 RMK A01 T10021007  RH  097%=      5-min Rain = 0
KRO1 081658Z 34014KT M00/M01 A3034 RMK A01 T10021007  RH  097%=      5-min Rain = 0
KRO1 081659Z 34014KT M00/M01 A3034 RMK A01 T10031008  RH  096%=      5-min Rain = 0
KRO1 081700Z 35013KT M00/M01 A3034 RMK A01 T10031008  RH  096%=      5-min Rain = 0
KRO1 081701Z 34011KT M00/M01 A3034 RMK A01 T10031008  RH  096%=      5-min Rain = 0
KRO1 081702Z 34011KT M00/M01 A3034 RMK A01 T10031008  RH  096%=      5-min Rain = 0
KRO1 081703Z 34012KT M00/M01 A3034 RMK A01 T10031008  RH  096%=      5-min Rain = 0
KRO1 081704Z 33012KT M00/M01 A3034 RMK A01 T10021008  RH  096%=      5-min Rain = 0
KRO1 081705Z 34011KT M00/M01 A3034 RMK A01 T10021008  RH  096%=      5-min Rain = 0
KRO1 081706Z 34012KT M00/M01 A3034 RMK A01 T10021008  RH  096%=      5-min Rain = 0
KRO1 081707Z 34012KT M00/M01 A3034 RMK A01 T10021008  RH  096%=      5-min Rain = 0
KRO1 081708Z 34012KT M00/M01 A3034 RMK A01 T10031008  RH  096%=      5-min Rain = 0
KRO1 081709Z 33012KT M00/M01 A3034 RMK A01 T10031008  RH  096%=      5-min Rain = 0
KRO1 081710Z 33010KT M00/M01 A3034 RMK A01 T10021008  RH  096%=      5-min Rain = 0
KRO1 081711Z 33011KT M00/M01 A3034 RMK A01 T10021008  RH  096%=      5-min Rain = 0
KRO1 081712Z 33011KT M00/M01 A3034 RMK A01 T10031008  RH  096%=      5-min Rain = 0
KRO1 081713Z 34009KT M00/M01 A3034 RMK A01 T10031008  RH  096%=      5-min Rain = 0
KRO1 081714Z 33011KT M00/M01 A3034 RMK A01 T10021008  RH  096%=      5-min Rain = 0
KRO1 081715Z 33012KT M00/M01 A3034 RMK A01 T10021007  RH  096%=      5-min Rain = 0
KRO1 081716Z 33013KT M00/M01 A3034 RMK A01 T10021007  RH  096%=      5-min Rain = 0
KRO1 081717Z 34011KT M00/M01 A3034 RMK A01 T10021008  RH  096%=      5-min Rain = 0
KRO1 081718Z 34009KT M00/M01 A3034 RMK A01 T10031008  RH  096%=      5-min Rain = 0
KRO1 081719Z 35012KT M00/M01 A3034 RMK A01 T10021007  RH  096%=      5-min Rain = 0
KRO1 081720Z 35012KT M00/M01 A3034 RMK A01 T10021007  RH  096%=      5-min Rain = 0
KRO1 081721Z 34011KT M00/M01 A3034 RMK A01 T10021008  RH  096%=      5-min Rain = 0
KRO1 081722Z 34012KT M00/M01 A3034 RMK A01 T10011007  RH  096%=      5-min Rain = 0
KRO1 081723Z 34014KT M00/M01 A3034 RMK A01 T10021007  RH  096%=      5-min Rain = 0
KRO1 081724Z 35013KT M00/M01 A3034 RMK A01 T10021008  RH  096%=      5-min Rain = 0.01
KRO1 081725Z 35012KT M00/M01 A3034 RMK A01 T10021008  RH  096%=      5-min Rain = 0.01
KRO1 081726Z 34009KT M00/M01 A3034 RMK A01 T10021008  RH  096%=      5-min Rain = 0
KRO1 081727Z 35009KT M00/M01 A3034 RMK A01 T10011007  RH  096%=      5-min Rain = 0.01
KRO1 081728Z 34009KT M00/M01 A3034 RMK A01 T10011006  RH  096%=      5-min Rain = 0.01
KRO1 081729Z 34011KT M00/M01 A3034 RMK A01 T10011006  RH  096%=      5-min Rain = 0
KRO1 081730Z 34013KT 00/01 A3034 RMK A01 T00-000-6  RH  096%=      5-min Rain = 0.01
KRO1 081731Z 34011KT M00/M01 A3033 RMK A01 T10011007  RH  096%=      5-min Rain = 0
KRO1 081732Z 34011KT M00/M01 A3033 RMK A01 T10011007  RH  096%=      5-min Rain = 0.01
KRO1 081733Z 34012KT M00/M01 A3033 RMK A01 T10011007  RH  096%=      5-min Rain = 0
KRO1 081734Z 34012KT M00/M01 A3033 RMK A01 T10011007  RH  096%=      5-min Rain = 0.01
KRO1 081735Z 34012KT M00/M01 A3033 RMK A01 T10021008  RH  096%=      5-min Rain = 0.01
KRO1 081736Z 33013KT M00/M01 A3033 RMK A01 T10011008  RH  096%=      5-min Rain = 0
KRO1 081737Z 34013KT M00/M01 A3033 RMK A01 T10021008  RH  096%=      5-min Rain = 0.01
KRO1 081738Z 33010KT M00/M01 A3033 RMK A01 T10021008  RH  096%=      5-min Rain = 0.01
KRO1 081739Z 34012KT M00/M01 A3033 RMK A01 T10021008  RH  096%=      5-min Rain = 0
KRO1 081740Z 33012KT M00/M01 A3033 RMK A01 T10021008  RH  096%=      5-min Rain = 0.01
KRO1 081741Z 34013KT M00/M01 A3033 RMK A01 T10021008  RH  096%=      5-min Rain = 0
KRO1 081742Z 33011KT M00/M01 A3033 RMK A01 T10021008  RH  096%=      5-min Rain = 0.01
KRO1 081743Z 34011KT M00/M01 A3033 RMK A01 T10021008  RH  096%=      5-min Rain = 0
KRO1 081744Z 34010KT M00/M01 A3033 RMK A01 T10021008  RH  096%=      5-min Rain = 0.01
KRO1 081745Z 33010KT M00/M01 A3033 RMK A01 T10021007  RH  096%=      5-min Rain = 0.01
KRO1 081746Z 33011KT M00/M01 A3033 RMK A01 T10021008  RH  096%=      5-min Rain = 0
KRO1 081747Z 33012KT M00/M01 A3033 RMK A01 T10021008  RH  096%=      5-min Rain = 0.01
KRO1 081748Z 34013KT M00/M01 A3033 RMK A01 T10021008  RH  096%=      5-min Rain = 0
KRO1 081749Z 33013KT M00/M01 A3033 RMK A01 T10021008  RH  096%=      5-min Rain = 0
KRO1 081750Z 33013KT M00/M01 A3033 RMK A01 T10021008  RH  096%=      5-min Rain = 0.01
KRO1 081751Z 34013KT M00/M01 A3033 RMK A01 T10021009  RH  096%=      5-min Rain = 0
KRO1 081752Z 33013KT M00/M01 A3033 RMK A01 T10021009  RH  096%=      5-min Rain = 0.01
KRO1 081753Z 33014KT M00/M01 A3033 RMK A01 T10031009  RH  096%=      5-min Rain = 0
KRO1 081754Z 33013KT M00/M01 A3033 RMK A01 T10031009  RH  095%=      5-min Rain = 0.01
KRO1 081755Z 34013KT M00/M01 A3033 RMK A01 T10031009  RH  095%=      5-min Rain = 0
KRO1 081756Z 34012KT M00/M01 A3032 RMK A01 T10031010  RH  095%=      5-min Rain = 0
KRO1 081757Z 34013KT M00/M01 A3032 RMK A01 T10031009  RH  095%=      5-min Rain = 0.01
KRO1 081758Z 34011KT M00/M01 A3032 RMK A01 T10031009  RH  096%=      5-min Rain = 0
KRO1 081759Z 33011KT M00/M01 A3032 RMK A01 T10031009  RH  096%=      5-min Rain = 0
KRO1 081800Z 33012KT M00/M01 A3032 RMK A01 T10021008  RH  096%=      5-min Rain = 0.01
KRO1 081801Z 34011KT M00/M01 A3032 RMK A01 T10021008  RH  096%=      5-min Rain = 0
KRO1 081802Z 33013KT M00/M01 A3032 RMK A01 T10021009  RH  096%=      5-min Rain = 0
KRO1 081803Z 34012KT M00/M01 A3032 RMK A01 T10031009  RH  095%=      5-min Rain = 0
KRO1 081804Z 34013KT M00/M01 A3032 RMK A01 T10031009  RH  095%=      5-min Rain = 0.01
KRO1 081805Z 34014KT M00/M01 A3032 RMK A01 T10041010  RH  095%=      5-min Rain = 0
KRO1 081806Z 34014KT M00/M01 A3032 RMK A01 T10041011  RH  095%=      5-min Rain = 0
KRO1 081807Z 34013KT M01/M01 A3032 RMK A01 T10051012  RH  095%=      5-min Rain = 0
KRO1 081808Z 34011KT M01/M01 A3032 RMK A01 T10051012  RH  095%=      5-min Rain = 0.01
KRO1 081809Z 35012KT M01/M01 A3032 RMK A01 T10051012  RH  095%=      5-min Rain = 0
KRO1 081810Z 34014KT M00/M01 A3032 RMK A01 T10041012  RH  095%=      5-min Rain = 0
KRO1 081811Z 35014KT M01/M01 A3032 RMK A01 T10051012  RH  095%=      5-min Rain = 0
KRO1 081812Z 35012KT M01/M01 A3032 RMK A01 T10051013  RH  095%=      5-min Rain = 0
KRO1 081813Z 34011KT M01/M01 A3032 RMK A01 T10051012  RH  095%=      5-min Rain = 0.01
KRO1 081814Z 34012KT M00/M01 A3032 RMK A01 T10041012  RH  095%=      5-min Rain = 0
KRO1 081815Z 34012KT M00/M01 A3032 RMK A01 T10041011  RH  095%=      5-min Rain = 0
KRO1 081816Z 35013KT M00/M01 A3032 RMK A01 T10041011  RH  095%=      5-min Rain = 0
KRO1 081817Z 35012KT M00/M01 A3032 RMK A01 T10041011  RH  095%=      5-min Rain = 0
KRO1 081818Z 35013KT M00/M01 A3032 RMK A01 T10041012  RH  095%=      5-min Rain = 0.01
KRO1 081819Z 35013KT M00/M01 A3032 RMK A01 T10041012  RH  095%=      5-min Rain = 0
KRO1 081820Z 35013KT M00/M01 A3032 RMK A01 T10041012  RH  094%=      5-min Rain = 0
KRO1 081821Z 35012KT M00/M01 A3032 RMK A01 T10041012  RH  094%=      5-min Rain = 0
KRO1 081822Z 34012KT M00/M01 A3031 RMK A01 T10041012  RH  094%=      5-min Rain = 0
KRO1 081823Z 34013KT M00/M01 A3031 RMK A01 T10041012  RH  094%=      5-min Rain = 0
KRO1 081824Z 35012KT M00/M01 A3031 RMK A01 T10041012  RH  094%=      5-min Rain = 0
KRO1 081825Z 34011KT M00/M01 A3031 RMK A01 T10031012  RH  094%=      5-min Rain = 0
KRO1 081826Z 34010KT M00/M01 A3031 RMK A01 T10031011  RH  094%=      5-min Rain = 0.01
KRO1 081827Z 35010KT M00/M01 A3031 RMK A01 T10021010  RH  094%=      5-min Rain = 0
KRO1 081828Z 34011KT M00/M01 A3031 RMK A01 T10011009  RH  094%=      5-min Rain = 0
KRO1 081829Z 34010KT M00/M01 A3031 RMK A01 T10011009  RH  094%=      5-min Rain = 0
KRO1 081830Z 34010KT M00/M01 A3031 RMK A01 T10011009  RH  094%=      5-min Rain = 0
KRO1 081831Z 34010KT M00/M01 A3031 RMK A01 T10011009  RH  094%=      5-min Rain = 0
KRO1 081832Z 34013KT 00/01 A3031 RMK A01 T00-000-8  RH  094%=      5-min Rain = 0
KRO1 081833Z 34012KT M00/M01 A3031 RMK A01 T10011009  RH  094%=      5-min Rain = 0
KRO1 081834Z 35011KT M00/M01 A3031 RMK A01 T10011010  RH  094%=      5-min Rain = 0.01
KRO1 081835Z 34012KT M00/M01 A3031 RMK A01 T10011010  RH  094%=      5-min Rain = 0
KRO1 081836Z 34011KT M00/M01 A3031 RMK A01 T10011010  RH  094%=      5-min Rain = 0
KRO1 081837Z 34012KT M00/M01 A3031 RMK A01 T10011010  RH  094%=      5-min Rain = 0
KRO1 081838Z 35012KT M00/M01 A3031 RMK A01 T10011010  RH  094%=      5-min Rain = 0
KRO1 081839Z 35012KT M00/M01 A3031 RMK A01 T10011010  RH  094%=      5-min Rain = 0
KRO1 081840Z 34011KT M00/M01 A3031 RMK A01 T10011010  RH  094%=      5-min Rain = 0.01
KRO1 081841Z 34012KT M00/M01 A3031 RMK A01 T10011010  RH  094%=      5-min Rain = 0
KRO1 081842Z 34011KT M00/M01 A3031 RMK A01 T10011010  RH  094%=      5-min Rain = 0
KRO1 081843Z 33013KT M00/M01 A3031 RMK A01 T10011010  RH  094%=      5-min Rain = 0
KRO1 081844Z 34012KT M00/M01 A3031 RMK A01 T10011011  RH  094%=      5-min Rain = 0
KRO1 081845Z 34013KT M00/M01 A3031 RMK A01 T10021011  RH  094%=      5-min Rain = 0
KRO1 081846Z 33011KT M00/M01 A3031 RMK A01 T10021011  RH  094%=      5-min Rain = 0.01
KRO1 081847Z 33011KT M00/M01 A3031 RMK A01 T10021011  RH  094%=      5-min Rain = 0
KRO1 081848Z 33013KT M00/M01 A3031 RMK A01 T10021010  RH  094%=      5-min Rain = 0
KRO1 081849Z 33013KT M00/M01 A3031 RMK A01 T10021011  RH  094%=      5-min Rain = 0
KRO1 081850Z 33012KT M00/M01 A3031 RMK A01 T10031011  RH  094%=      5-min Rain = 0
KRO1 081851Z 33009KT M00/M01 A3031 RMK A01 T10031012  RH  094%=      5-min Rain = 0
KRO1 081852Z 33010KT M00/M01 A3031 RMK A01 T10031011  RH  094%=      5-min Rain = 0
KRO1 081853Z 33010KT M00/M01 A3031 RMK A01 T10031010  RH  094%=      5-min Rain = 0
KRO1 081854Z 33010KT M00/M01 A3031 RMK A01 T10031011  RH  094%=      5-min Rain = 0
KRO1 081855Z 33012KT M00/M01 A3031 RMK A01 T10031010  RH  094%=      5-min Rain = 0.01
KRO1 081856Z 33011KT M00/M01 A3031 RMK A01 T10031010  RH  094%=      5-min Rain = 0
KRO1 081857Z 33012KT M00/M01 A3031 RMK A01 T10031011  RH  095%=      5-min Rain = 0
KRO1 081858Z 32010KT M00/M01 A3031 RMK A01 T10031011  RH  094%=      5-min Rain = 0
KRO1 081859Z 33012KT M00/M01 A3031 RMK A01 T10031011  RH  095%=      5-min Rain = 0
KRO1 081900Z 33010KT M00/M01 A3031 RMK A01 T10031011  RH  095%=      5-min Rain = 0
KRO1 081901Z 33012KT M00/M01 A3031 RMK A01 T10031010  RH  095%=      5-min Rain = 0
KRO1 081902Z 33013KT M00/M01 A3031 RMK A01 T10031010  RH  095%=      5-min Rain = 0
KRO1 081903Z 32010KT M00/M01 A3031 RMK A01 T10031011  RH  095%=      5-min Rain = 0
KRO1 081904Z 32010KT M00/M01 A3031 RMK A01 T10041011  RH  095%=      5-min Rain = 0
KRO1 081905Z 33009KT M00/M01 A3031 RMK A01 T10031011  RH  095%=      5-min Rain = 0
KRO1 081906Z 32008KT M00/M01 A3031 RMK A01 T10031010  RH  095%=      5-min Rain = 0.01
KRO1 081907Z 32008KT M00/M01 A3031 RMK A01 T10021009  RH  095%=      5-min Rain = 0
KRO1 081908Z 32010KT M00/M01 A3031 RMK A01 T10021009  RH  095%=      5-min Rain = 0
KRO1 081909Z 32009KT M00/M01 A3031 RMK A01 T10021009  RH  095%=      5-min Rain = 0
KRO1 081910Z 32012KT M00/M01 A3031 RMK A01 T10021009  RH  095%=      5-min Rain = 0
KRO1 081911Z 33011KT M00/M01 A3031 RMK A01 T10031010  RH  095%=      5-min Rain = 0
KRO1 081912Z 32010KT M00/M01 A3031 RMK A01 T10031010  RH  095%=      5-min Rain = 0
KRO1 081913Z 34010KT M00/M01 A3031 RMK A01 T10021010  RH  095%=      5-min Rain = 0
KRO1 081914Z 33011KT M00/M01 A3031 RMK A01 T10031010  RH  095%=      5-min Rain = 0
KRO1 081915Z 33011KT M00/M01 A3031 RMK A01 T10031010  RH  095%=      5-min Rain = 0
KRO1 081916Z 33010KT M00/M01 A3031 RMK A01 T10031010  RH  095%=      5-min Rain = 0.01
KRO1 081917Z 32011KT M00/M01 A303 RMK A01 T10021010  RH  095%=      5-min Rain = 0
KRO1 081918Z 32010KT M00/M01 A303 RMK A01 T10021009  RH  095%=      5-min Rain = 0
KRO1 081919Z 33009KT M00/M01 A303 RMK A01 T10021009  RH  095%=      5-min Rain = 0
KRO1 081920Z 32011KT M00/M01 A303 RMK A01 T10011009  RH  095%=      5-min Rain = 0
KRO1 081921Z 32012KT M00/M01 A303 RMK A01 T10011008  RH  095%=      5-min Rain = 0
KRO1 081922Z 32011KT M00/M01 A303 RMK A01 T10011008  RH  095%=      5-min Rain = 0
KRO1 081923Z 32010KT M00/M01 A303 RMK A01 T10011008  RH  095%=      5-min Rain = 0
KRO1 081924Z 31011KT M00/M01 A303 RMK A01 T10011008  RH  095%=      5-min Rain = 0
KRO1 081925Z 32012KT M00/M01 A303 RMK A01 T10011008  RH  095%=      5-min Rain = 0.01
KRO1 081926Z 32010KT M00/M01 A303 RMK A01 T10011008  RH  095%=      5-min Rain = 0
KRO1 081927Z 31009KT M00/M01 A303 RMK A01 T10011008  RH  095%=      5-min Rain = 0
KRO1 081928Z 32011KT M00/M01 A303 RMK A01 T10011008  RH  095%=      5-min Rain = 0
KRO1 081929Z 32010KT M00/M01 A303 RMK A01 T10011008  RH  095%=      5-min Rain = 0
KRO1 081930Z 31009KT M00/M01 A303 RMK A01 T10011008  RH  095%=      5-min Rain = 0
KRO1 081931Z 32011KT M00/M01 A303 RMK A01 T10011007  RH  095%=      5-min Rain = 0
KRO1 081932Z 32012KT M00/M01 A303 RMK A01 T10011008  RH  095%=      5-min Rain = 0
KRO1 081933Z 31011KT M00/M01 A303 RMK A01 T10011008  RH  095%=      5-min Rain = 0
KRO1 081934Z 32011KT M00/M01 A303 RMK A01 T10011008  RH  095%=      5-min Rain = 0
KRO1 081935Z 32010KT M00/M01 A303 RMK A01 T10021008  RH  095%=      5-min Rain = 0
KRO1 081936Z 33009KT M00/M01 A303 RMK A01 T10021008  RH  095%=      5-min Rain = 0
KRO1 081937Z 33009KT M00/M01 A303 RMK A01 T10021008  RH  096%=      5-min Rain = 0
KRO1 081938Z 32009KT M00/M01 A303 RMK A01 T10021008  RH  096%=      5-min Rain = 0
KRO1 081939Z 31008KT M00/M01 A303 RMK A01 T10011007  RH  096%=      5-min Rain = 0
KRO1 081940Z 31009KT M00/M01 A3029 RMK A01 T10011007  RH  096%=      5-min Rain = 0
KRO1 081941Z 32008KT M00/M01 A3029 RMK A01 T10011007  RH  096%=      5-min Rain = 0
KRO1 081942Z 32010KT M00/M01 A3029 RMK A01 T10011007  RH  096%=      5-min Rain = 0
KRO1 081943Z 32009KT M00/M01 A3029 RMK A01 T10011007  RH  096%=      5-min Rain = 0
KRO1 081944Z 33009KT M00/M01 A3029 RMK A01 T10011007  RH  096%=      5-min Rain = 0
KRO1 081945Z 32008KT 00/01 A3029 RMK A01 T00-000-6  RH  096%=      5-min Rain = 0
KRO1 081946Z 32006KT 00/01 A3029 RMK A01 T00-000-6  RH  096%=      5-min Rain = 0
KRO1 081947Z 33008KT 00/M01 A3029 RMK A01 T00011005  RH  096%=      5-min Rain = 0.01
KRO1 081948Z 32008KT 00/M01 A3029 RMK A01 T00011005  RH  096%=      5-min Rain = 0
KRO1 081949Z 32008KT 00/M01 A3029 RMK A01 T00011005  RH  096%=      5-min Rain = 0
KRO1 081950Z 32011KT 00/M01 A3029 RMK A01 T00011005  RH  096%=      5-min Rain = 0
KRO1 081951Z 32011KT 00/M01 A3029 RMK A01 T00011006  RH  095%=      5-min Rain = 0
KRO1 081952Z 32011KT 00/01 A3029 RMK A01 T00-000-8  RH  095%=      5-min Rain = 0
KRO1 081953Z 32011KT 00/01 A3029 RMK A01 T00-000-8  RH  094%=      5-min Rain = 0
KRO1 081954Z 33011KT M00/M01 A3029 RMK A01 T10011009  RH  094%=      5-min Rain = 0
KRO1 081955Z 32010KT M00/M01 A3029 RMK A01 T10011009  RH  094%=      5-min Rain = 0
KRO1 081956Z 33009KT M00/M01 A3029 RMK A01 T10011009  RH  094%=      5-min Rain = 0
KRO1 081957Z 33009KT 00/01 A3029 RMK A01 T000000-8  RH  094%=      5-min Rain = 0
KRO1 081958Z 34011KT 00/01 A3029 RMK A01 T000000-8  RH  094%=      5-min Rain = 0
KRO1 081959Z 34010KT 00/01 A3029 RMK A01 T000000-8  RH  094%=      5-min Rain = 0
KRO1 082000Z 33009KT 00/M01 A3029 RMK A01 T00011008  RH  094%=      5-min Rain = 0
KRO1 082001Z 32009KT 00/01 A3029 RMK A01 T000000-8  RH  094%=      5-min Rain = 0
KRO1 082002Z 32009KT 00/01 A3029 RMK A01 T000000-8  RH  094%=      5-min Rain = 0
KRO1 082003Z 32012KT 00/01 A3029 RMK A01 T000000-8  RH  094%=      5-min Rain = 0
KRO1 082004Z 31011KT 00/01 A3029 RMK A01 T00-000-9  RH  094%=      5-min Rain = 0
KRO1 082005Z 32011KT 00/01 A3029 RMK A01 T00-00-10  RH  093%=      5-min Rain = 0
KRO1 082006Z 31010KT M00/M01 A3029 RMK A01 T10011010  RH  093%=      5-min Rain = 0.01
KRO1 082007Z 32009KT M00/M01 A3029 RMK A01 T10011010  RH  093%=      5-min Rain = 0
KRO1 082008Z 31009KT M00/M01 A3029 RMK A01 T10011010  RH  094%=      5-min Rain = 0
KRO1 082009Z 32011KT 00/01 A3029 RMK A01 T00-000-9  RH  094%=      5-min Rain = 0
KRO1 082010Z 32009KT 00/01 A3029 RMK A01 T000000-9  RH  094%=      5-min Rain = 0
KRO1 082011Z 32008KT 00/01 A3029 RMK A01 T000000-9  RH  094%=      5-min Rain = 0
KRO1 082012Z 32008KT 00/M01 A3029 RMK A01 T00011008  RH  094%=      5-min Rain = 0
KRO1 082013Z 32009KT 00/M01 A3029 RMK A01 T00011007  RH  094%=      5-min Rain = 0
KRO1 082014Z 33010KT 00/M01 A3029 RMK A01 T00021007  RH  094%=      5-min Rain = 0
KRO1 082015Z 32009KT 00/M01 A3029 RMK A01 T00011009  RH  093%=      5-min Rain = 0
KRO1 082016Z 32011KT 00/M01 A3029 RMK A01 T00011010  RH  093%=      5-min Rain = 0
KRO1 082017Z 32009KT 00/01 A3029 RMK A01 T00000-11  RH  092%=      5-min Rain = 0
KRO1 082018Z 32008KT 00/01 A3029 RMK A01 T00000-10  RH  093%=      5-min Rain = 0
KRO1 082019Z 32010KT 00/M01 A3029 RMK A01 T00011010  RH  093%=      5-min Rain = 0
KRO1 082020Z 33010KT 00/M01 A3029 RMK A01 T00011010  RH  093%=      5-min Rain = 0
KRO1 082021Z 33011KT 00/M01 A3029 RMK A01 T00011010  RH  093%=      5-min Rain = 0
KRO1 082022Z 33009KT 00/01 A3029 RMK A01 T00000-11  RH  092%=      5-min Rain = 0
KRO1 082023Z 33006KT 00/01 A3028 RMK A01 T00000-11  RH  092%=      5-min Rain = 0
KRO1 082024Z 34008KT 00/01 A3028 RMK A01 T00000-10  RH  093%=      5-min Rain = 0
KRO1 082025Z 34009KT 00/M01 A3028 RMK A01 T00011010  RH  093%=      5-min Rain = 0
KRO1 082026Z 34007KT 00/M01 A3028 RMK A01 T00011010  RH  093%=      5-min Rain = 0
KRO1 082027Z 34008KT 00/M01 A3028 RMK A01 T00011010  RH  093%=      5-min Rain = 0
KRO1 082028Z 34008KT 00/01 A3028 RMK A01 T00000-10  RH  093%=      5-min Rain = 0
KRO1 082029Z 34008KT 00/01 A3028 RMK A01 T00000-10  RH  093%=      5-min Rain = 0
KRO1 082030Z 34007KT 00/01 A3028 RMK A01 T00000-11  RH  093%=      5-min Rain = 0
KRO1 082031Z 34008KT 00/01 A3028 RMK A01 T00000-10  RH  093%=      5-min Rain = 0
KRO1 082032Z 34008KT 00/01 A3028 RMK A01 T00000-10  RH  093%=      5-min Rain = 0
KRO1 082033Z 33009KT 00/M01 A3028 RMK A01 T00011009  RH  093%=      5-min Rain = 0
KRO1 082034Z 33007KT 00/M01 A3028 RMK A01 T00011009  RH  093%=      5-min Rain = 0
KRO1 082035Z 33006KT 00/M01 A3028 RMK A01 T00011009  RH  093%=      5-min Rain = 0
KRO1 082036Z 33005KT 00/M01 A3028 RMK A01 T00011008  RH  093%=      5-min Rain = 0
KRO1 082037Z 33005KT 00/M01 A3028 RMK A01 T00021007  RH  094%=      5-min Rain = 0
KRO1 082038Z 32008KT 00/M01 A3028 RMK A01 T00021007  RH  093%=      5-min Rain = 0
KRO1 082039Z 34008KT 00/M01 A3028 RMK A01 T00021008  RH  093%=      5-min Rain = 0
KRO1 082040Z 34007KT 00/M01 A3028 RMK A01 T00021009  RH  093%=      5-min Rain = 0
KRO1 082041Z 34007KT 00/M01 A3029 RMK A01 T00021009  RH  093%=      5-min Rain = 0
KRO1 082042Z 34007KT 00/M01 A3029 RMK A01 T00021009  RH  092%=      5-min Rain = 0
KRO1 082043Z 34008KT 00/M01 A3029 RMK A01 T00011010  RH  092%=      5-min Rain = 0
KRO1 082044Z 34008KT 00/M01 A3029 RMK A01 T00021010  RH  092%=      5-min Rain = 0
KRO1 082045Z 34006KT 00/M01 A3029 RMK A01 T00021010  RH  092%=      5-min Rain = 0
KRO1 082046Z 34008KT 00/M01 A3029 RMK A01 T00021010  RH  092%=      5-min Rain = 0
KRO1 082047Z 34007KT 00/M01 A3029 RMK A01 T00021010  RH  092%=      5-min Rain = 0
KRO1 082048Z 34008KT 00/M01 A3028 RMK A01 T00021009  RH  092%=      5-min Rain = 0
KRO1 082049Z 35009KT 00/M01 A3028 RMK A01 T00021009  RH  092%=      5-min Rain = 0
KRO1 082050Z 35010KT 00/M01 A3028 RMK A01 T00021010  RH  092%=      5-min Rain = 0
KRO1 082051Z 35008KT 00/M01 A3028 RMK A01 T00021010  RH  092%=      5-min Rain = 0
KRO1 082052Z 34007KT 00/M01 A3028 RMK A01 T00021010  RH  092%=      5-min Rain = 0
KRO1 082053Z 34006KT 00/M01 A3028 RMK A01 T00021010  RH  092%=      5-min Rain = 0
KRO1 082054Z 34007KT 00/M01 A3028 RMK A01 T00031009  RH  092%=      5-min Rain = 0
KRO1 082055Z 33006KT 00/M01 A3028 RMK A01 T00021009  RH  092%=      5-min Rain = 0
KRO1 082056Z 34009KT 00/M01 A3028 RMK A01 T00021009  RH  092%=      5-min Rain = 0
KRO1 082057Z 34009KT 00/M01 A3028 RMK A01 T00021010  RH  091%=      5-min Rain = 0
KRO1 082058Z 33008KT 00/M01 A3028 RMK A01 T00021010  RH  091%=      5-min Rain = 0
KRO1 082059Z 34008KT 00/M01 A3028 RMK A01 T00021009  RH  092%=      5-min Rain = 0
KRO1 082100Z 34009KT 00/M01 A3028 RMK A01 T00031009  RH  092%=      5-min Rain = 0
KRO1 082101Z 34008KT 00/M01 A3028 RMK A01 T00031010  RH  091%=      5-min Rain = 0
KRO1 082102Z 34007KT 00/M01 A3028 RMK A01 T00021010  RH  092%=      5-min Rain = 0
KRO1 082103Z 34008KT 00/M01 A3028 RMK A01 T00031009  RH  092%=      5-min Rain = 0
KRO1 082104Z 33007KT 00/M01 A3028 RMK A01 T00031010  RH  092%=      5-min Rain = 0
KRO1 082105Z 33007KT 00/M01 A3028 RMK A01 T00031009  RH  092%=      5-min Rain = 0
KRO1 082106Z 33007KT 00/M01 A3028 RMK A01 T00031009  RH  092%=      5-min Rain = 0
KRO1 082107Z 33007KT 00/M01 A3028 RMK A01 T00041008  RH  092%=      5-min Rain = 0
KRO1 082108Z 32009KT 00/M01 A3028 RMK A01 T00041008  RH  092%=      5-min Rain = 0
KRO1 082109Z 33007KT 00/M01 A3028 RMK A01 T00041009  RH  091%=      5-min Rain = 0
KRO1 082110Z 33007KT 00/M01 A3028 RMK A01 T00041008  RH  091%=      5-min Rain = 0
KRO1 082111Z 33008KT 00/M01 A3028 RMK A01 T00041008  RH  091%=      5-min Rain = 0
KRO1 082112Z 34008KT 00/M01 A3028 RMK A01 T00041009  RH  091%=      5-min Rain = 0
KRO1 082113Z 34007KT 00/M01 A3028 RMK A01 T00041009  RH  091%=      5-min Rain = 0
KRO1 082114Z 33007KT 00/M01 A3028 RMK A01 T00041008  RH  091%=      5-min Rain = 0
KRO1 082115Z 33008KT 00/M01 A3028 RMK A01 T00041009  RH  091%=      5-min Rain = 0
KRO1 082116Z 33007KT 00/M01 A3028 RMK A01 T00041009  RH  091%=      5-min Rain = 0
KRO1 082117Z 33006KT 01/M01 A3028 RMK A01 T00051009  RH  091%=      5-min Rain = 0
KRO1 082118Z 33007KT 01/M01 A3028 RMK A01 T00051008  RH  091%=      5-min Rain = 0
KRO1 082119Z 34007KT 01/M01 A3028 RMK A01 T00051008  RH  091%=      5-min Rain = 0
KRO1 082120Z 34006KT 01/M01 A3028 RMK A01 T00051008  RH  091%=      5-min Rain = 0
KRO1 082121Z 33006KT 01/M01 A3028 RMK A01 T00051008  RH  091%=      5-min Rain = 0
KRO1 082122Z 33005KT 01/M01 A3028 RMK A01 T00051007  RH  091%=      5-min Rain = 0
KRO1 082123Z 34005KT 01/M01 A3028 RMK A01 T00051007  RH  091%=      5-min Rain = 0
KRO1 082124Z 34006KT 01/M01 A3028 RMK A01 T00051007  RH  091%=      5-min Rain = 0
KRO1 082125Z 34007KT 01/M01 A3028 RMK A01 T00051008  RH  091%=      5-min Rain = 0
KRO1 082126Z 34007KT 01/M01 A3028 RMK A01 T00051010  RH  090%=      5-min Rain = 0
KRO1 082127Z 35007KT 01/M01 A3028 RMK A01 T00051009  RH  090%=      5-min Rain = 0
KRO1 082128Z 34006KT 01/M01 A3028 RMK A01 T00051009  RH  090%=      5-min Rain = 0
KRO1 082129Z 34007KT 01/M01 A3028 RMK A01 T00051009  RH  090%=      5-min Rain = 0
KRO1 082130Z 34007KT 01/M01 A3028 RMK A01 T00051009  RH  090%=      5-min Rain = 0
KRO1 082131Z 33006KT 01/M01 A3028 RMK A01 T00051009  RH  090%=      5-min Rain = 0
KRO1 082132Z 34004KT 01/M01 A3028 RMK A01 T00051009  RH  090%=      5-min Rain = 0
KRO1 082133Z 34004KT 01/M01 A3028 RMK A01 T00051008  RH  091%=      5-min Rain = 0
KRO1 082134Z 34006KT 01/M01 A3028 RMK A01 T00061007  RH  091%=      5-min Rain = 0
KRO1 082135Z 34006KT 01/M01 A3028 RMK A01 T00061008  RH  091%=      5-min Rain = 0
KRO1 082136Z 34006KT 01/M01 A3028 RMK A01 T00061008  RH  090%=      5-min Rain = 0
KRO1 082137Z 33005KT 01/M01 A3028 RMK A01 T00061010  RH  089%=      5-min Rain = 0
KRO1 082138Z 32005KT 01/M01 A3028 RMK A01 T00051010  RH  090%=      5-min Rain = 0
KRO1 082139Z 32006KT 01/M01 A3028 RMK A01 T00051009  RH  090%=      5-min Rain = 0
KRO1 082140Z 31006KT 01/M01 A3028 RMK A01 T00051009  RH  090%=      5-min Rain = 0
KRO1 082141Z 32006KT 01/M01 A3028 RMK A01 T00051009  RH  090%=      5-min Rain = 0
KRO1 082142Z 31006KT 01/M01 A3028 RMK A01 T00051010  RH  090%=      5-min Rain = 0
KRO1 082143Z 31006KT 01/M01 A3028 RMK A01 T00051009  RH  090%=      5-min Rain = 0
KRO1 082144Z 31008KT 01/M01 A3028 RMK A01 T00051009  RH  090%=      5-min Rain = 0
KRO1 082145Z 31008KT 01/M01 A3028 RMK A01 T00051009  RH  090%=      5-min Rain = 0
KRO1 082146Z 31008KT 01/M01 A3028 RMK A01 T00051009  RH  090%=      5-min Rain = 0
KRO1 082147Z 31008KT 01/M01 A3028 RMK A01 T00061008  RH  090%=      5-min Rain = 0
KRO1 082148Z 32007KT 01/M01 A3028 RMK A01 T00061009  RH  090%=      5-min Rain = 0
KRO1 082149Z 31007KT 01/M01 A3028 RMK A01 T00061008  RH  090%=      5-min Rain = 0
KRO1 082150Z 31008KT 01/M01 A3028 RMK A01 T00061007  RH  091%=      5-min Rain = 0
KRO1 082151Z 31007KT 01/M01 A3028 RMK A01 T00061008  RH  091%=      5-min Rain = 0
KRO1 082152Z 31007KT 01/M01 A3028 RMK A01 T00061008  RH  091%=      5-min Rain = 0
KRO1 082153Z 32008KT 01/M01 A3028 RMK A01 T00061008  RH  091%=      5-min Rain = 0
KRO1 082154Z 32009KT 01/M01 A3028 RMK A01 T00061008  RH  090%=      5-min Rain = 0
KRO1 082155Z 33009KT 01/M01 A3028 RMK A01 T00061009  RH  090%=      5-min Rain = 0
KRO1 082156Z 32008KT 01/M01 A3028 RMK A01 T00061010  RH  089%=      5-min Rain = 0
KRO1 082157Z 32007KT 01/M01 A3028 RMK A01 T00061010  RH  089%=      5-min Rain = 0
KRO1 082158Z 32006KT 01/M01 A3028 RMK A01 T00061011  RH  089%=      5-min Rain = 0
KRO1 082159Z 32007KT 01/M01 A3028 RMK A01 T00061013  RH  087%=      5-min Rain = 0
KRO1 082200Z 33006KT 01/M01 A3028 RMK A01 T00061014  RH  087%=      5-min Rain = 0
KRO1 082201Z 32006KT 01/M01 A3028 RMK A01 T00061013  RH  087%=      5-min Rain = 0
KRO1 082202Z 33007KT 01/M02 A3028 RMK A01 T00061015  RH  086%=      5-min Rain = 0
KRO1 082203Z 33007KT 01/M02 A3028 RMK A01 T00061016  RH  085%=      5-min Rain = 0
KRO1 082204Z 32007KT 01/M02 A3028 RMK A01 T00061016  RH  086%=      5-min Rain = 0
KRO1 082205Z 32007KT 01/M02 A3028 RMK A01 T00061015  RH  086%=      5-min Rain = 0
KRO1 082206Z 32007KT 01/M02 A3028 RMK A01 T00061015  RH  086%=      5-min Rain = 0
KRO1 082207Z 32008KT 01/M02 A3028 RMK A01 T00061016  RH  085%=      5-min Rain = 0
KRO1 082208Z 32007KT 01/M02 A3028 RMK A01 T00061018  RH  084%=      5-min Rain = 0
KRO1 082209Z 31008KT 01/M02 A3028 RMK A01 T00051019  RH  084%=      5-min Rain = 0
KRO1 082210Z 32008KT 01/M02 A3028 RMK A01 T00051019  RH  084%=      5-min Rain = 0
KRO1 082211Z 31008KT 01/M02 A3028 RMK A01 T00051019  RH  084%=      5-min Rain = 0
KRO1 082212Z 31007KT 01/M02 A3028 RMK A01 T00051019  RH  084%=      5-min Rain = 0
KRO1 082213Z 31007KT 01/M02 A3028 RMK A01 T00051019  RH  084%=      5-min Rain = 0
KRO1 082214Z 31007KT 01/M02 A3028 RMK A01 T00051018  RH  085%=      5-min Rain = 0
KRO1 082215Z 32006KT 01/M02 A3028 RMK A01 T00051019  RH  084%=      5-min Rain = 0
KRO1 082216Z 32006KT 01/M02 A3028 RMK A01 T00051020  RH  084%=      5-min Rain = 0
KRO1 082217Z 32006KT 01/M02 A3028 RMK A01 T00051019  RH  084%=      5-min Rain = 0
KRO1 082218Z 32007KT 01/M02 A3028 RMK A01 T00051019  RH  084%=      5-min Rain = 0
KRO1 082219Z 32006KT 01/M02 A3028 RMK A01 T00051019  RH  084%=      5-min Rain = 0
KRO1 082220Z 32006KT 01/M02 A3028 RMK A01 T00051018  RH  085%=      5-min Rain = 0
KRO1 082221Z 31005KT 01/M02 A3028 RMK A01 T00051018  RH  085%=      5-min Rain = 0
KRO1 082222Z 32005KT 01/M02 A3028 RMK A01 T00051017  RH  085%=      5-min Rain = 0
KRO1 082223Z 32005KT 01/M02 A3028 RMK A01 T00051016  RH  085%=      5-min Rain = 0
KRO1 082224Z 32005KT 01/M02 A3028 RMK A01 T00051017  RH  085%=      5-min Rain = 0
KRO1 082225Z 31005KT 01/M02 A3028 RMK A01 T00051017  RH  085%=      5-min Rain = 0
KRO1 082226Z 31005KT 01/M02 A3028 RMK A01 T00051015  RH  086%=      5-min Rain = 0
KRO1 082227Z 31006KT 01/M02 A3028 RMK A01 T00051015  RH  086%=      5-min Rain = 0
KRO1 082228Z 32005KT 01/M02 A3028 RMK A01 T00061016  RH  085%=      5-min Rain = 0
KRO1 082229Z 31005KT 01/M02 A3028 RMK A01 T00061015  RH  086%=      5-min Rain = 0
KRO1 082230Z 31005KT 01/M01 A3028 RMK A01 T00061014  RH  086%=      5-min Rain = 0
KRO1 082231Z 31006KT 01/M01 A3028 RMK A01 T00061014  RH  086%=      5-min Rain = 0
KRO1 082232Z 31006KT 01/M02 A3028 RMK A01 T00061015  RH  086%=      5-min Rain = 0
KRO1 082233Z 31005KT 01/M01 A3028 RMK A01 T00071014  RH  086%=      5-min Rain = 0
KRO1 082234Z 31005KT 01/M01 A3028 RMK A01 T00071014  RH  086%=      5-min Rain = 0
KRO1 082235Z 30005KT 01/M01 A3028 RMK A01 T00071013  RH  086%=      5-min Rain = 0
KRO1 082236Z 31005KT 01/M01 A3028 RMK A01 T00071013  RH  086%=      5-min Rain = 0
KRO1 082237Z 31005KT 01/M01 A3028 RMK A01 T00071013  RH  086%=      5-min Rain = 0
KRO1 082238Z 30006KT 01/M01 A3028 RMK A01 T00071013  RH  087%=      5-min Rain = 0
KRO1 082239Z 30006KT 01/M01 A3028 RMK A01 T00071013  RH  086%=      5-min Rain = 0
KRO1 082240Z 30005KT 01/M01 A3028 RMK A01 T00071013  RH  086%=      5-min Rain = 0
KRO1 082241Z 30006KT 01/M01 A3028 RMK A01 T00071013  RH  087%=      5-min Rain = 0
KRO1 082242Z 30005KT 01/M01 A3028 RMK A01 T00071012  RH  087%=      5-min Rain = 0
KRO1 082243Z 30005KT 01/M01 A3028 RMK A01 T00071012  RH  087%=      5-min Rain = 0
KRO1 082244Z 30005KT 01/M01 A3028 RMK A01 T00071012  RH  087%=      5-min Rain = 0
KRO1 082245Z 30003KT 01/M01 A3028 RMK A01 T00071012  RH  087%=      5-min Rain = 0
KRO1 082246Z 30004KT 01/M01 A3028 RMK A01 T00071012  RH  087%=      5-min Rain = 0
KRO1 082247Z 30003KT 01/M01 A3028 RMK A01 T00071011  RH  088%=      5-min Rain = 0
KRO1 082248Z 30003KT 01/M01 A3028 RMK A01 T00071011  RH  088%=      5-min Rain = 0
KRO1 082249Z 30003KT 01/M01 A3028 RMK A01 T00071010  RH  088%=      5-min Rain = 0
KRO1 082250Z 30004KT 01/M01 A3028 RMK A01 T00071009  RH  089%=      5-min Rain = 0
KRO1 082251Z 31003KT 01/M01 A3028 RMK A01 T00081009  RH  089%=      5-min Rain = 0
KRO1 082252Z 31003KT 01/M01 A3028 RMK A01 T00071010  RH  088%=      5-min Rain = 0
KRO1 082253Z 31004KT 01/M01 A3028 RMK A01 T00081009  RH  088%=      5-min Rain = 0
KRO1 082254Z 31004KT 01/M01 A3028 RMK A01 T00081009  RH  089%=      5-min Rain = 0
KRO1 082255Z 30003KT 01/M01 A3028 RMK A01 T00081008  RH  089%=      5-min Rain = 0
KRO1 082256Z 31002KT 01/M01 A3028 RMK A01 T00091008  RH  089%=      5-min Rain = 0
KRO1 082257Z 31004KT 01/M01 A3028 RMK A01 T00091008  RH  089%=      5-min Rain = 0
KRO1 082258Z 30003KT 01/M01 A3028 RMK A01 T00101008  RH  088%=      5-min Rain = 0
KRO1 082259Z 30003KT 01/M01 A3028 RMK A01 T00101008  RH  088%=      5-min Rain = 0
KRO1 082300Z 30004KT 01/M01 A3028 RMK A01 T00101007  RH  088%=      5-min Rain = 0
KRO1 082301Z 30004KT 01/M01 A3028 RMK A01 T00101009  RH  087%=      5-min Rain = 0
KRO1 082302Z 31005KT 01/M01 A3028 RMK A01 T00111010  RH  086%=      5-min Rain = 0
KRO1 082303Z 31004KT 01/M01 A3028 RMK A01 T00111011  RH  086%=      5-min Rain = 0
KRO1 082304Z 31004KT 01/M01 A3028 RMK A01 T00111012  RH  085%=      5-min Rain = 0
KRO1 082305Z 32004KT 01/M01 A3028 RMK A01 T00111012  RH  085%=      5-min Rain = 0
KRO1 082306Z 31004KT 01/M01 A3028 RMK A01 T00111013  RH  084%=      5-min Rain = 0
KRO1 082307Z 31004KT 01/M01 A3028 RMK A01 T00111013  RH  084%=      5-min Rain = 0
KRO1 082308Z 31004KT 01/M01 A3028 RMK A01 T00111010  RH  086%=      5-min Rain = 0
KRO1 082309Z 31005KT 01/M01 A3028 RMK A01 T00111010  RH  086%=      5-min Rain = 0
KRO1 082310Z 32006KT 01/M01 A3028 RMK A01 T00111014  RH  083%=      5-min Rain = 0
KRO1 082311Z 32006KT 01/M02 A3028 RMK A01 T00111018  RH  081%=      5-min Rain = 0
KRO1 082312Z 32006KT 01/M02 A3028 RMK A01 T00111018  RH  081%=      5-min Rain = 0
KRO1 082313Z 32005KT 01/M02 A3028 RMK A01 T00101018  RH  081%=      5-min Rain = 0
KRO1 082314Z 31006KT 01/M02 A3028 RMK A01 T00101017  RH  082%=      5-min Rain = 0
KRO1 082315Z 31006KT 01/M02 A3028 RMK A01 T00101017  RH  082%=      5-min Rain = 0
KRO1 082316Z 32006KT 01/M02 A3028 RMK A01 T00091018  RH  082%=      5-min Rain = 0
KRO1 082317Z 31006KT 01/M02 A3028 RMK A01 T00091019  RH  082%=      5-min Rain = 0
KRO1 082318Z 32008KT 01/M02 A3028 RMK A01 T00091019  RH  082%=      5-min Rain = 0
KRO1 082319Z 33007KT 01/M02 A3028 RMK A01 T00091020  RH  081%=      5-min Rain = 0
KRO1 082320Z 32007KT 01/M02 A3028 RMK A01 T00091021  RH  081%=      5-min Rain = 0
KRO1 082321Z 32005KT 01/M02 A3028 RMK A01 T00091019  RH  081%=      5-min Rain = 0
KRO1 082322Z 32006KT 01/M02 A3028 RMK A01 T00091019  RH  082%=      5-min Rain = 0
KRO1 082323Z 32005KT 01/M02 A3028 RMK A01 T00081019  RH  082%=      5-min Rain = 0
KRO1 082324Z 31006KT 01/M02 A3028 RMK A01 T00081018  RH  083%=      5-min Rain = 0
KRO1 082325Z 31006KT 01/M02 A3028 RMK A01 T00081018  RH  083%=      5-min Rain = 0
KRO1 082326Z 31005KT 01/M02 A3028 RMK A01 T00081018  RH  083%=      5-min Rain = 0
KRO1 082327Z 31005KT 01/M02 A3028 RMK A01 T00081017  RH  084%=      5-min Rain = 0
KRO1 082328Z 30005KT 01/M02 A3028 RMK A01 T00071016  RH  084%=      5-min Rain = 0
KRO1 082329Z 30006KT 01/M02 A3028 RMK A01 T00071016  RH  085%=      5-min Rain = 0
KRO1 082330Z 30006KT 01/M02 A3028 RMK A01 T00061016  RH  085%=      5-min Rain = 0
KRO1 082331Z 30006KT 01/M02 A3028 RMK A01 T00071016  RH  085%=      5-min Rain = 0
KRO1 082332Z 30006KT 01/M02 A3028 RMK A01 T00061016  RH  085%=      5-min Rain = 0
KRO1 082333Z 30005KT 01/M02 A3029 RMK A01 T00061017  RH  085%=      5-min Rain = 0
KRO1 082334Z 29006KT 01/M02 A3029 RMK A01 T00061016  RH  085%=      5-min Rain = 0
KRO1 082335Z 30006KT 01/M02 A3029 RMK A01 T00061015  RH  085%=      5-min Rain = 0
KRO1 082336Z 30006KT 01/M02 A3029 RMK A01 T00061015  RH  086%=      5-min Rain = 0
KRO1 082337Z 30006KT 01/M02 A3029 RMK A01 T00051016  RH  086%=      5-min Rain = 0
KRO1 082338Z 29006KT 01/M02 A3028 RMK A01 T00051016  RH  086%=      5-min Rain = 0
KRO1 082339Z 29006KT 01/M02 A3028 RMK A01 T00051016  RH  086%=      5-min Rain = 0
KRO1 082340Z 29006KT 01/M02 A3028 RMK A01 T00051015  RH  086%=      5-min Rain = 0
KRO1 082341Z 29006KT 00/M02 A3028 RMK A01 T00041015  RH  087%=      5-min Rain = 0
KRO1 082342Z 29007KT 00/M02 A3028 RMK A01 T00041015  RH  087%=      5-min Rain = 0
KRO1 082343Z 29008KT 00/M01 A3028 RMK A01 T00041014  RH  087%=      5-min Rain = 0
KRO1 082344Z 29008KT 00/M01 A3028 RMK A01 T00041014  RH  088%=      5-min Rain = 0
KRO1 082345Z 29008KT 00/M01 A3028 RMK A01 T00041014  RH  088%=      5-min Rain = 0
KRO1 082346Z 29008KT 00/M01 A3029 RMK A01 T00041014  RH  088%=      5-min Rain = 0
KRO1 082347Z 28007KT 00/M01 A3029 RMK A01 T00041014  RH  088%=      5-min Rain = 0
KRO1 082348Z 28007KT 00/M01 A3029 RMK A01 T00041013  RH  088%=      5-min Rain = 0
KRO1 082349Z 28007KT 00/M01 A3029 RMK A01 T00031013  RH  089%=      5-min Rain = 0
KRO1 082350Z 28007KT 00/M01 A3029 RMK A01 T00031013  RH  089%=      5-min Rain = 0
KRO1 082351Z 28006KT 00/M01 A3028 RMK A01 T00031013  RH  089%=      5-min Rain = 0
KRO1 082352Z 28006KT 00/M01 A3028 RMK A01 T00031013  RH  089%=      5-min Rain = 0
KRO1 082353Z 29006KT 00/M01 A3028 RMK A01 T00031013  RH  089%=      5-min Rain = 0
KRO1 082354Z 28006KT 00/M01 A3028 RMK A01 T00031013  RH  089%=      5-min Rain = 0
KRO1 082355Z 28006KT 00/M01 A3028 RMK A01 T00031012  RH  090%=      5-min Rain = 0
KRO1 082356Z 28006KT 00/M01 A3028 RMK A01 T00031012  RH  090%=      5-min Rain = 0
KRO1 082357Z 28006KT 00/M01 A3028 RMK A01 T00021012  RH  090%=      5-min Rain = 0
KRO1 082358Z 28006KT 00/M01 A3029 RMK A01 T00021013  RH  090%=      5-min Rain = 0
KRO1 082359Z 28006KT 00/M01 A3029 RMK A01 T00021013  RH  090%=      5-min Rain = 0
KRO1 090000Z 28006KT 00/M01 A3029 RMK A01 T00011013  RH  090%=      5-min Rain = 0
KRO1 090001Z 28005KT 00/M01 A3028 RMK A01 T00011013  RH  090%=      5-min Rain = 0
KRO1 090002Z 27005KT 00/M01 A3028 RMK A01 T00011013  RH  090%=      5-min Rain = 0
KRO1 090003Z 27005KT 00/M01 A3028 RMK A01 T00011013  RH  090%=      5-min Rain = 0
KRO1 090004Z 28005KT 00/M01 A3028 RMK A01 T00011013  RH  091%=      5-min Rain = 0
KRO1 090005Z 27005KT 00/01 A3028 RMK A01 T00000-13  RH  091%=      5-min Rain = 0
KRO1 090006Z 27005KT 00/01 A3028 RMK A01 T00-00-14  RH  091%=      5-min Rain = 0
KRO1 090007Z 28005KT M00/M01 A3028 RMK A01 T10011014  RH  091%=      5-min Rain = 0
KRO1 090008Z 27005KT M00/M01 A3028 RMK A01 T10011014  RH  090%=      5-min Rain = 0
KRO1 090009Z 27005KT M00/M02 A3028 RMK A01 T10011015  RH  090%=      5-min Rain = 0
KRO1 090010Z 27005KT M00/M02 A3028 RMK A01 T10011016  RH  090%=      5-min Rain = 0
KRO1 090011Z 27005KT M00/M02 A3028 RMK A01 T10011016  RH  090%=      5-min Rain = 0
KRO1 090012Z 27005KT M00/M02 A3028 RMK A01 T10011016  RH  090%=      5-min Rain = 0
KRO1 090013Z 27005KT M00/M02 A3028 RMK A01 T10011016  RH  090%=      5-min Rain = 0
KRO1 090014Z 27005KT M00/M02 A3028 RMK A01 T10011016  RH  090%=      5-min Rain = 0
KRO1 090015Z 27005KT M00/M02 A3028 RMK A01 T10021017  RH  090%=      5-min Rain = 0
KRO1 090016Z 27006KT M00/M02 A3028 RMK A01 T10021017  RH  090%=      5-min Rain = 0
KRO1 090017Z 27006KT M00/M02 A3028 RMK A01 T10021017  RH  089%=      5-min Rain = 0
KRO1 090018Z 27006KT M00/M02 A3028 RMK A01 T10021018  RH  089%=      5-min Rain = 0
KRO1 090019Z 27005KT M00/M02 A3028 RMK A01 T10021018  RH  089%=      5-min Rain = 0
KRO1 090020Z 27005KT M00/M02 A3028 RMK A01 T10021018  RH  089%=      5-min Rain = 0
KRO1 090021Z 27005KT M00/M02 A3028 RMK A01 T10011018  RH  088%=      5-min Rain = 0
KRO1 090022Z 27005KT M00/M02 A3028 RMK A01 T10011018  RH  088%=      5-min Rain = 0
KRO1 090023Z 27005KT M00/M02 A3028 RMK A01 T10011019  RH  088%=      5-min Rain = 0
KRO1 090024Z 27005KT M00/M02 A3028 RMK A01 T10011019  RH  088%=      5-min Rain = 0
KRO1 090025Z 27005KT M00/M02 A3028 RMK A01 T10011019  RH  088%=      5-min Rain = 0
KRO1 090026Z 27005KT M00/M02 A3028 RMK A01 T10011019  RH  088%=      5-min Rain = 0
KRO1 090027Z 27004KT M00/M02 A3028 RMK A01 T10011019  RH  088%=      5-min Rain = 0
KRO1 090028Z 27004KT M00/M02 A3028 RMK A01 T10011019  RH  088%=      5-min Rain = 0
KRO1 090029Z 28004KT 00/02 A3028 RMK A01 T00-00-19  RH  088%=      5-min Rain = 0
KRO1 090030Z 28004KT M00/M02 A3028 RMK A01 T10011019  RH  087%=      5-min Rain = 0
KRO1 090031Z 28004KT M00/M02 A3028 RMK A01 T10011019  RH  087%=      5-min Rain = 0
KRO1 090032Z 28004KT M00/M02 A3028 RMK A01 T10011019  RH  087%=      5-min Rain = 0
KRO1 090033Z 28004KT M00/M02 A3028 RMK A01 T10011019  RH  088%=      5-min Rain = 0
KRO1 090034Z 29005KT M00/M02 A3029 RMK A01 T10011019  RH  088%=      5-min Rain = 0
KRO1 090035Z 29004KT M00/M02 A3029 RMK A01 T10011019  RH  088%=      5-min Rain = 0
KRO1 090036Z 29005KT M00/M02 A3029 RMK A01 T10011019  RH  088%=      5-min Rain = 0
KRO1 090037Z 28005KT M00/M02 A3029 RMK A01 T10011019  RH  088%=      5-min Rain = 0
KRO1 090038Z 28005KT M00/M02 A3029 RMK A01 T10021019  RH  088%=      5-min Rain = 0
KRO1 090039Z 28005KT M00/M02 A3029 RMK A01 T10021019  RH  088%=      5-min Rain = 0
KRO1 090040Z 28005KT M00/M02 A3029 RMK A01 T10011019  RH  088%=      5-min Rain = 0
KRO1 090041Z 29003KT M00/M02 A3029 RMK A01 T10011019  RH  087%=      5-min Rain = 0
KRO1 090042Z 29003KT 00/02 A3029 RMK A01 T00-00-19  RH  087%=      5-min Rain = 0
KRO1 090043Z 29003KT 00/02 A3029 RMK A01 T00-00-19  RH  087%=      5-min Rain = 0
KRO1 090044Z 29003KT 00/02 A3029 RMK A01 T00-00-19  RH  088%=      5-min Rain = 0
KRO1 090045Z 29003KT 00/02 A3029 RMK A01 T00-00-18  RH  088%=      5-min Rain = 0
KRO1 090046Z 28003KT 00/02 A3029 RMK A01 T00-00-18  RH  088%=      5-min Rain = 0
KRO1 090047Z 29003KT 00/02 A3029 RMK A01 T00-00-18  RH  088%=      5-min Rain = 0
KRO1 090048Z 28003KT 00/02 A3029 RMK A01 T00-00-19  RH  088%=      5-min Rain = 0
KRO1 090049Z 29003KT M00/M02 A3029 RMK A01 T10011020  RH  087%=      5-min Rain = 0
KRO1 090050Z 29003KT M00/M02 A3029 RMK A01 T10011020  RH  087%=      5-min Rain = 0
KRO1 090051Z 29003KT 00/02 A3029 RMK A01 T00-00-19  RH  087%=      5-min Rain = 0
KRO1 090052Z 30003KT 00/02 A3029 RMK A01 T00-00-19  RH  087%=      5-min Rain = 0
KRO1 090053Z 30003KT 00/02 A3029 RMK A01 T00-00-19  RH  088%=      5-min Rain = 0
KRO1 090054Z 29002KT M00/M02 A3029 RMK A01 T10011019  RH  088%=      5-min Rain = 0
KRO1 090055Z 30003KT M00/M02 A3029 RMK A01 T10011019  RH  088%=      5-min Rain = 0
KRO1 090056Z 30003KT M00/M02 A3029 RMK A01 T10021019  RH  088%=      5-min Rain = 0
KRO1 090057Z 30003KT M00/M02 A3029 RMK A01 T10021019  RH  088%=      5-min Rain = 0
KRO1 090058Z 29003KT M00/M02 A3029 RMK A01 T10021019  RH  088%=      5-min Rain = 0
KRO1 090059Z 30003KT M00/M02 A3029 RMK A01 T10031020  RH  088%=      5-min Rain = 0
KRO1 090100Z 29003KT M00/M02 A3029 RMK A01 T10031020  RH  088%=      5-min Rain = 0
KRO1 090101Z 29003KT M00/M02 A3029 RMK A01 T10021020  RH  088%=      5-min Rain = 0
KRO1 090102Z 29003KT M00/M02 A3029 RMK A01 T10031020  RH  088%=      5-min Rain = 0
KRO1 090103Z 29004KT M00/M02 A3029 RMK A01 T10021020  RH  088%=      5-min Rain = 0
KRO1 090104Z 29004KT M00/M02 A3029 RMK A01 T10031020  RH  088%=      5-min Rain = 0
KRO1 090105Z 29004KT M00/M02 A3029 RMK A01 T10031020  RH  088%=      5-min Rain = 0
KRO1 090106Z 29004KT M00/M02 A3029 RMK A01 T10021020  RH  088%=      5-min Rain = 0
KRO1 090107Z 29004KT M00/M02 A3029 RMK A01 T10021020  RH  088%=      5-min Rain = 0
KRO1 090108Z 29004KT M00/M02 A3029 RMK A01 T10031020  RH  088%=      5-min Rain = 0
KRO1 090109Z 29004KT M00/M02 A3029 RMK A01 T10021020  RH  088%=      5-min Rain = 0
KRO1 090110Z 29005KT M00/M02 A3029 RMK A01 T10021020  RH  088%=      5-min Rain = 0
KRO1 090111Z 29005KT M00/M02 A303 RMK A01 T10021020  RH  088%=      5-min Rain = 0
KRO1 090112Z 29005KT M00/M02 A303 RMK A01 T10021019  RH  088%=      5-min Rain = 0
KRO1 090113Z 29005KT M00/M02 A303 RMK A01 T10021019  RH  088%=      5-min Rain = 0
KRO1 090114Z 29005KT M00/M02 A303 RMK A01 T10011019  RH  088%=      5-min Rain = 0
KRO1 090115Z 29005KT M00/M02 A303 RMK A01 T10011019  RH  088%=      5-min Rain = 0
KRO1 090116Z 29005KT M00/M02 A303 RMK A01 T10011019  RH  088%=      5-min Rain = 0
KRO1 090117Z 29005KT M00/M02 A303 RMK A01 T10011019  RH  088%=      5-min Rain = 0
KRO1 090118Z 29005KT M00/M02 A303 RMK A01 T10011019  RH  088%=      5-min Rain = 0
KRO1 090119Z 29005KT M00/M02 A303 RMK A01 T10011019  RH  088%=      5-min Rain = 0
KRO1 090120Z 29005KT M00/M02 A303 RMK A01 T10011018  RH  088%=      5-min Rain = 0
KRO1 090121Z 29005KT M00/M02 A303 RMK A01 T10011018  RH  088%=      5-min Rain = 0
KRO1 090122Z 29006KT M00/M02 A303 RMK A01 T10011019  RH  088%=      5-min Rain = 0
KRO1 090123Z 29006KT M00/M02 A303 RMK A01 T10021019  RH  088%=      5-min Rain = 0
KRO1 090124Z 29005KT M00/M02 A303 RMK A01 T10021019  RH  088%=      5-min Rain = 0
KRO1 090125Z 29006KT M00/M02 A303 RMK A01 T10021020  RH  088%=      5-min Rain = 0
KRO1 090126Z 29006KT M00/M02 A303 RMK A01 T10031020  RH  088%=      5-min Rain = 0
KRO1 090127Z 29005KT M00/M02 A303 RMK A01 T10031020  RH  088%=      5-min Rain = 0
KRO1 090128Z 29005KT M00/M02 A303 RMK A01 T10041020  RH  089%=      5-min Rain = 0
KRO1 090129Z 29005KT M00/M02 A303 RMK A01 T10031020  RH  089%=      5-min Rain = 0
KRO1 090130Z 29005KT M00/M02 A303 RMK A01 T10041020  RH  089%=      5-min Rain = 0
KRO1 090131Z 29005KT M01/M02 A303 RMK A01 T10051021  RH  089%=      5-min Rain = 0
KRO1 090132Z 28005KT M01/M02 A303 RMK A01 T10051021  RH  089%=      5-min Rain = 0
KRO1 090133Z 28006KT M01/M02 A303 RMK A01 T10051021  RH  089%=      5-min Rain = 0
KRO1 090134Z 28006KT M01/M02 A303 RMK A01 T10051021  RH  089%=      5-min Rain = 0
KRO1 090135Z 28006KT M01/M02 A303 RMK A01 T10061021  RH  089%=      5-min Rain = 0
KRO1 090136Z 28006KT M01/M02 A3031 RMK A01 T10061021  RH  089%=      5-min Rain = 0
KRO1 090137Z 28006KT M01/M02 A3031 RMK A01 T10061021  RH  090%=      5-min Rain = 0
KRO1 090138Z 29006KT M01/M02 A3031 RMK A01 T10061021  RH  090%=      5-min Rain = 0
KRO1 090139Z 29006KT M01/M02 A3031 RMK A01 T10061021  RH  090%=      5-min Rain = 0
KRO1 090140Z 29006KT M01/M02 A303 RMK A01 T10061021  RH  090%=      5-min Rain = 0
KRO1 090141Z 29006KT M01/M02 A303 RMK A01 T10071021  RH  090%=      5-min Rain = 0
KRO1 090142Z 29006KT M01/M02 A303 RMK A01 T10071021  RH  090%=      5-min Rain = 0
KRO1 090143Z 29006KT M01/M02 A3031 RMK A01 T10071021  RH  090%=      5-min Rain = 0
KRO1 090144Z 29006KT M01/M02 A3031 RMK A01 T10071021  RH  090%=      5-min Rain = 0
KRO1 090145Z 29006KT M01/M02 A3031 RMK A01 T10081022  RH  090%=      5-min Rain = 0
KRO1 090146Z 29006KT M01/M02 A3031 RMK A01 T10081022  RH  090%=      5-min Rain = 0
KRO1 090147Z 29006KT M01/M02 A3031 RMK A01 T10081022  RH  091%=      5-min Rain = 0
KRO1 090148Z 29006KT M01/M02 A3031 RMK A01 T10081022  RH  091%=      5-min Rain = 0
KRO1 090149Z 28006KT M01/M02 A3031 RMK A01 T10091022  RH  091%=      5-min Rain = 0
KRO1 090150Z 28006KT M01/M02 A3031 RMK A01 T10081022  RH  091%=      5-min Rain = 0
KRO1 090151Z 28006KT M01/M02 A3031 RMK A01 T10091022  RH  091%=      5-min Rain = 0
KRO1 090152Z 28006KT M01/M02 A3031 RMK A01 T10091022  RH  091%=      5-min Rain = 0
KRO1 090153Z 28005KT M01/M02 A3031 RMK A01 T10091022  RH  091%=      5-min Rain = 0
KRO1 090154Z 28005KT M01/M02 A3031 RMK A01 T10091022  RH  091%=      5-min Rain = 0
KRO1 090155Z 28005KT M01/M02 A3031 RMK A01 T10091021  RH  091%=      5-min Rain = 0
KRO1 090156Z 28005KT M01/M02 A3031 RMK A01 T10091022  RH  091%=      5-min Rain = 0
KRO1 090157Z 28005KT M01/M02 A3031 RMK A01 T10091022  RH  091%=      5-min Rain = 0
KRO1 090158Z 28005KT M01/M02 A3031 RMK A01 T10091022  RH  091%=      5-min Rain = 0
KRO1 090159Z 28005KT M01/M02 A3031 RMK A01 T10101022  RH  092%=      5-min Rain = 0
KRO1 090200Z 28005KT M01/M02 A3031 RMK A01 T10101022  RH  092%=      5-min Rain = 0
KRO1 090201Z 28005KT M01/M02 A3031 RMK A01 T10101022  RH  092%=      5-min Rain = 0
KRO1 090202Z 28005KT M01/M02 A3031 RMK A01 T10101022  RH  092%=      5-min Rain = 0
KRO1 090203Z 28005KT M01/M02 A3031 RMK A01 T10101021  RH  092%=      5-min Rain = 0
KRO1 090204Z 28005KT M01/M02 A3031 RMK A01 T10101021  RH  092%=      5-min Rain = 0
KRO1 090205Z 28005KT M01/M02 A303 RMK A01 T10101021  RH  092%=      5-min Rain = 0
KRO1 090206Z 28004KT M01/M02 A303 RMK A01 T10101021  RH  092%=      5-min Rain = 0
KRO1 090207Z 28005KT M01/M02 A303 RMK A01 T10101021  RH  093%=      5-min Rain = 0
KRO1 090208Z 28005KT M01/M02 A303 RMK A01 T10101021  RH  093%=      5-min Rain = 0
KRO1 090209Z 28005KT M01/M02 A303 RMK A01 T10111021  RH  093%=      5-min Rain = 0
KRO1 090210Z 28004KT M01/M02 A303 RMK A01 T10111021  RH  093%=      5-min Rain = 0
KRO1 090211Z 28005KT M01/M02 A303 RMK A01 T10111021  RH  093%=      5-min Rain = 0
KRO1 090212Z 28005KT M01/M02 A303 RMK A01 T10111020  RH  093%=      5-min Rain = 0
KRO1 090213Z 28005KT M01/M02 A303 RMK A01 T10111020  RH  093%=      5-min Rain = 0
KRO1 090214Z 28005KT M01/M02 A3031 RMK A01 T10111021  RH  093%=      5-min Rain = 0
KRO1 090215Z 28004KT M01/M02 A3031 RMK A01 T10111021  RH  093%=      5-min Rain = 0
KRO1 090216Z 27004KT M01/M02 A303 RMK A01 T10111021  RH  093%=      5-min Rain = 0
KRO1 090217Z 28004KT M01/M02 A303 RMK A01 T10111020  RH  093%=      5-min Rain = 0
KRO1 090218Z 28005KT M01/M02 A303 RMK A01 T10111020  RH  093%=      5-min Rain = 0
KRO1 090219Z 28005KT M01/M02 A303 RMK A01 T10111020  RH  093%=      5-min Rain = 0
KRO1 090220Z 28005KT M01/M02 A303 RMK A01 T10111021  RH  093%=      5-min Rain = 0
KRO1 090221Z 28005KT M01/M02 A303 RMK A01 T10111021  RH  093%=      5-min Rain = 0
KRO1 090222Z 28005KT M01/M02 A303 RMK A01 T10121021  RH  093%=      5-min Rain = 0
KRO1 090223Z 28006KT M01/M02 A3031 RMK A01 T10121022  RH  093%=      5-min Rain = 0
KRO1 090224Z 28006KT M01/M02 A3031 RMK A01 T10121022  RH  093%=      5-min Rain = 0
KRO1 090225Z 28006KT M01/M02 A3031 RMK A01 T10121022  RH  093%=      5-min Rain = 0
KRO1 090226Z 28006KT M01/M02 A3031 RMK A01 T10121021  RH  093%=      5-min Rain = 0
KRO1 090227Z 28006KT M01/M02 A3031 RMK A01 T10121021  RH  094%=      5-min Rain = 0
KRO1 090228Z 28006KT M01/M02 A3031 RMK A01 T10121021  RH  094%=      5-min Rain = 0
KRO1 090229Z 28006KT M01/M02 A3031 RMK A01 T10111020  RH  094%=      5-min Rain = 0
KRO1 090230Z 28006KT M01/M02 A3031 RMK A01 T10111020  RH  094%=      5-min Rain = 0
KRO1 090231Z 28007KT M01/M02 A3031 RMK A01 T10111020  RH  094%=      5-min Rain = 0
KRO1 090232Z 28007KT M01/M02 A3031 RMK A01 T10111020  RH  093%=      5-min Rain = 0
KRO1 090233Z 28007KT M01/M02 A3031 RMK A01 T10101019  RH  093%=      5-min Rain = 0
KRO1 090234Z 28007KT M01/M02 A3031 RMK A01 T10101019  RH  093%=      5-min Rain = 0
KRO1 090235Z 28007KT M01/M02 A3031 RMK A01 T10091019  RH  093%=      5-min Rain = 0
KRO1 090236Z 28007KT M01/M02 A3031 RMK A01 T10091018  RH  093%=      5-min Rain = 0
KRO1 090237Z 28007KT M01/M02 A3031 RMK A01 T10081018  RH  093%=      5-min Rain = 0
KRO1 090238Z 28008KT M01/M02 A3031 RMK A01 T10081018  RH  093%=      5-min Rain = 0
KRO1 090239Z 28007KT M01/M02 A3031 RMK A01 T10071018  RH  093%=      5-min Rain = 0
KRO1 090240Z 28008KT M01/M02 A3031 RMK A01 T10081018  RH  092%=      5-min Rain = 0
KRO1 090241Z 28008KT M01/M02 A3031 RMK A01 T10081018  RH  092%=      5-min Rain = 0
KRO1 090242Z 28008KT M01/M02 A3031 RMK A01 T10081019  RH  092%=      5-min Rain = 0
KRO1 090243Z 28008KT M01/M02 A3031 RMK A01 T10081019  RH  092%=      5-min Rain = 0
KRO1 090244Z 29008KT M01/M02 A3031 RMK A01 T10081019  RH  092%=      5-min Rain = 0
KRO1 090245Z 29007KT M01/M02 A3031 RMK A01 T10081019  RH  092%=      5-min Rain = 0
KRO1 090246Z 29008KT M01/M02 A3031 RMK A01 T10081019  RH  092%=      5-min Rain = 0
KRO1 090247Z 29007KT M01/M02 A3031 RMK A01 T10081019  RH  092%=      5-min Rain = 0
KRO1 090248Z 29007KT M01/M02 A3031 RMK A01 T10081019  RH  093%=      5-min Rain = 0
KRO1 090249Z 29007KT M01/M02 A3031 RMK A01 T10081019  RH  093%=      5-min Rain = 0
KRO1 090250Z 29007KT M01/M02 A3031 RMK A01 T10081019  RH  093%=      5-min Rain = 0
KRO1 090251Z 29007KT M01/M02 A3031 RMK A01 T10081019  RH  093%=      5-min Rain = 0
KRO1 090252Z 28007KT M01/M02 A3031 RMK A01 T10081018  RH  093%=      5-min Rain = 0
KRO1 090253Z 28007KT M01/M02 A3031 RMK A01 T10081019  RH  092%=      5-min Rain = 0
KRO1 090254Z 28008KT M01/M02 A3031 RMK A01 T10091019  RH  092%=      5-min Rain = 0
KRO1 090255Z 28008KT M01/M02 A3031 RMK A01 T10091019  RH  093%=      5-min Rain = 0
KRO1 090256Z 28007KT M01/M02 A3031 RMK A01 T10081019  RH  093%=      5-min Rain = 0
KRO1 090257Z 28007KT M01/M02 A3031 RMK A01 T10081018  RH  093%=      5-min Rain = 0
KRO1 090258Z 28007KT M01/M02 A3031 RMK A01 T10071018  RH  093%=      5-min Rain = 0
KRO1 090259Z 28008KT M01/M02 A3031 RMK A01 T10071017  RH  093%=      5-min Rain = 0
KRO1 090300Z 28007KT M01/M02 A3032 RMK A01 T10061017  RH  092%=      5-min Rain = 0
KRO1 090301Z 28007KT M01/M02 A3032 RMK A01 T10061017  RH  092%=      5-min Rain = 0
KRO1 090302Z 27006KT M01/M02 A3032 RMK A01 T10061017  RH  092%=      5-min Rain = 0
KRO1 090303Z 27007KT M01/M02 A3032 RMK A01 T10061017  RH  092%=      5-min Rain = 0
KRO1 090304Z 28007KT M01/M02 A3032 RMK A01 T10061018  RH  092%=      5-min Rain = 0
KRO1 090305Z 28007KT M01/M02 A3032 RMK A01 T10061018  RH  092%=      5-min Rain = 0
KRO1 090306Z 28007KT M01/M02 A3032 RMK A01 T10061018  RH  092%=      5-min Rain = 0
KRO1 090307Z 28007KT M01/M02 A3032 RMK A01 T10061018  RH  092%=      5-min Rain = 0
KRO1 090308Z 28006KT M01/M02 A3032 RMK A01 T10071018  RH  092%=      5-min Rain = 0
KRO1 090309Z 28007KT M01/M02 A3031 RMK A01 T10071018  RH  092%=      5-min Rain = 0
KRO1 090310Z 28007KT M01/M02 A3031 RMK A01 T10071018  RH  092%=      5-min Rain = 0
KRO1 090311Z 28007KT M01/M02 A3031 RMK A01 T10071018  RH  092%=      5-min Rain = 0
KRO1 090312Z 28007KT M01/M02 A3031 RMK A01 T10071018  RH  092%=      5-min Rain = 0
KRO1 090313Z 28007KT M01/M02 A3031 RMK A01 T10071018  RH  092%=      5-min Rain = 0
KRO1 090314Z 28007KT M01/M02 A3031 RMK A01 T10071018  RH  092%=      5-min Rain = 0
KRO1 090315Z 28007KT M01/M02 A3031 RMK A01 T10071018  RH  092%=      5-min Rain = 0
KRO1 090316Z 28007KT M01/M02 A3031 RMK A01 T10071018  RH  092%=      5-min Rain = 0
KRO1 090317Z 28007KT M01/M02 A3031 RMK A01 T10071018  RH  092%=      5-min Rain = 0
KRO1 090318Z 28007KT M01/M02 A3031 RMK A01 T10061017  RH  092%=      5-min Rain = 0
KRO1 090319Z 28007KT M01/M02 A3031 RMK A01 T10061017  RH  092%=      5-min Rain = 0
KRO1 090320Z 28008KT M01/M02 A3031 RMK A01 T10061017  RH  092%=      5-min Rain = 0
KRO1 090321Z 28007KT M01/M02 A3031 RMK A01 T10061017  RH  092%=      5-min Rain = 0
KRO1 090322Z 28007KT M01/M02 A3031 RMK A01 T10051017  RH  092%=      5-min Rain = 0
KRO1 090323Z 28007KT M01/M02 A3031 RMK A01 T10051017  RH  092%=      5-min Rain = 0
KRO1 090324Z 28007KT M01/M02 A3031 RMK A01 T10051017  RH  092%=      5-min Rain = 0
KRO1 090325Z 28008KT M01/M02 A3031 RMK A01 T10051017  RH  091%=      5-min Rain = 0
KRO1 090326Z 28008KT M01/M02 A3031 RMK A01 T10051017  RH  091%=      5-min Rain = 0
KRO1 090327Z 28008KT M01/M02 A3031 RMK A01 T10051018  RH  091%=      5-min Rain = 0
KRO1 090328Z 28008KT M01/M02 A3031 RMK A01 T10051017  RH  091%=      5-min Rain = 0
KRO1 090329Z 28007KT M01/M02 A3031 RMK A01 T10051017  RH  091%=      5-min Rain = 0
KRO1 090330Z 28007KT M01/M02 A3031 RMK A01 T10051017  RH  091%=      5-min Rain = 0
KRO1 090331Z 28007KT M01/M02 A3031 RMK A01 T10051017  RH  091%=      5-min Rain = 0
KRO1 090332Z 28008KT M01/M02 A3031 RMK A01 T10051017  RH  091%=      5-min Rain = 0
KRO1 090333Z 28008KT M01/M02 A3031 RMK A01 T10051017  RH  091%=      5-min Rain = 0
KRO1 090334Z 28007KT M01/M02 A3031 RMK A01 T10051017  RH  092%=      5-min Rain = 0
KRO1 090335Z 28007KT M01/M02 A3031 RMK A01 T10051016  RH  092%=      5-min Rain = 0
KRO1 090336Z 28007KT M00/M02 A3031 RMK A01 T10041015  RH  092%=      5-min Rain = 0
KRO1 090337Z 28007KT M00/M02 A3031 RMK A01 T10041016  RH  092%=      5-min Rain = 0
KRO1 090338Z 28007KT M00/M02 A3031 RMK A01 T10041016  RH  092%=      5-min Rain = 0
KRO1 090339Z 28007KT M01/M02 A3031 RMK A01 T10051016  RH  092%=      5-min Rain = 0
KRO1 090340Z 28007KT M01/M02 A3031 RMK A01 T10051016  RH  092%=      5-min Rain = 0
KRO1 090341Z 28007KT M01/M02 A3031 RMK A01 T10051017  RH  092%=      5-min Rain = 0
KRO1 090342Z 28007KT M01/M02 A3031 RMK A01 T10061017  RH  092%=      5-min Rain = 0
KRO1 090343Z 28007KT M01/M02 A3031 RMK A01 T10061017  RH  092%=      5-min Rain = 0
KRO1 090344Z 28007KT M01/M02 A3031 RMK A01 T10061017  RH  092%=      5-min Rain = 0
KRO1 090345Z 28007KT M01/M02 A3031 RMK A01 T10061017  RH  092%=      5-min Rain = 0
KRO1 090346Z 28007KT M01/M02 A3031 RMK A01 T10061017  RH  093%=      5-min Rain = 0
KRO1 090347Z 28007KT M01/M02 A3031 RMK A01 T10061016  RH  093%=      5-min Rain = 0
KRO1 090348Z 28007KT M01/M02 A3031 RMK A01 T10061016  RH  093%=      5-min Rain = 0
KRO1 090349Z 28006KT M01/M02 A3031 RMK A01 T10061016  RH  093%=      5-min Rain = 0
KRO1 090350Z 27006KT M01/M02 A3031 RMK A01 T10061016  RH  093%=      5-min Rain = 0
KRO1 090351Z 27006KT M01/M02 A3031 RMK A01 T10051016  RH  093%=      5-min Rain = 0
KRO1 090352Z 27006KT M01/M02 A3032 RMK A01 T10061016  RH  093%=      5-min Rain = 0
KRO1 090353Z 27007KT M01/M02 A3032 RMK A01 T10061017  RH  093%=      5-min Rain = 0
KRO1 090354Z 27007KT M01/M02 A3032 RMK A01 T10071017  RH  093%=      5-min Rain = 0
KRO1 090355Z 27006KT M01/M02 A3032 RMK A01 T10071017  RH  093%=      5-min Rain = 0
KRO1 090356Z 28007KT M01/M02 A3032 RMK A01 T10081018  RH  093%=      5-min Rain = 0
KRO1 090357Z 28008KT M01/M02 A3032 RMK A01 T10081018  RH  093%=      5-min Rain = 0
KRO1 090358Z 28007KT M01/M02 A3032 RMK A01 T10091018  RH  093%=      5-min Rain = 0
KRO1 090359Z 28008KT M01/M02 A3032 RMK A01 T10091018  RH  093%=      5-min Rain = 0
KRO1 090400Z 28008KT M01/M02 A3032 RMK A01 T10081018  RH  094%=      5-min Rain = 0
KRO1 090401Z 28008KT M01/M02 A3032 RMK A01 T10081017  RH  094%=      5-min Rain = 0
KRO1 090402Z 28008KT M01/M02 A3032 RMK A01 T10071016  RH  094%=      5-min Rain = 0
KRO1 090403Z 28008KT M01/M02 A3032 RMK A01 T10061015  RH  094%=      5-min Rain = 0
KRO1 090404Z 28008KT M01/M01 A3032 RMK A01 T10051014  RH  094%=      5-min Rain = 0
KRO1 090405Z 29008KT M01/M01 A3032 RMK A01 T10051014  RH  094%=      5-min Rain = 0
KRO1 090406Z 29008KT M00/M01 A3032 RMK A01 T10041014  RH  093%=      5-min Rain = 0
KRO1 090407Z 29008KT M00/M01 A3031 RMK A01 T10041014  RH  093%=      5-min Rain = 0
KRO1 090408Z 29008KT M00/M01 A3031 RMK A01 T10041014  RH  093%=      5-min Rain = 0
KRO1 090409Z 29008KT M00/M01 A3031 RMK A01 T10041014  RH  093%=      5-min Rain = 0
KRO1 090410Z 29008KT M00/M01 A3031 RMK A01 T10031014  RH  092%=      5-min Rain = 0
KRO1 090411Z 29008KT M00/M01 A3031 RMK A01 T10031014  RH  092%=      5-min Rain = 0
KRO1 090412Z 29008KT M00/M02 A3031 RMK A01 T10041015  RH  092%=      5-min Rain = 0
KRO1 090413Z 29008KT M00/M01 A3032 RMK A01 T10031014  RH  092%=      5-min Rain = 0
KRO1 090414Z 29008KT M00/M01 A3032 RMK A01 T10031014  RH  092%=      5-min Rain = 0
KRO1 090415Z 29008KT M00/M02 A3032 RMK A01 T10041015  RH  092%=      5-min Rain = 0
KRO1 090416Z 29008KT M00/M02 A3032 RMK A01 T10041015  RH  092%=      5-min Rain = 0
KRO1 090417Z 29008KT M00/M02 A3032 RMK A01 T10041015  RH  093%=      5-min Rain = 0
KRO1 090418Z 29008KT M00/M02 A3032 RMK A01 T10041015  RH  093%=      5-min Rain = 0
KRO1 090419Z 29008KT M00/M02 A3032 RMK A01 T10041015  RH  093%=      5-min Rain = 0
KRO1 090420Z 29008KT M00/M02 A3032 RMK A01 T10041015  RH  093%=      5-min Rain = 0
KRO1 090421Z 29008KT M01/M02 A3032 RMK A01 T10051015  RH  093%=      5-min Rain = 0
KRO1 090422Z 29008KT M01/M02 A3032 RMK A01 T10051015  RH  093%=      5-min Rain = 0
KRO1 090423Z 29008KT M01/M02 A3032 RMK A01 T10051015  RH  093%=      5-min Rain = 0
KRO1 090424Z 29008KT M01/M01 A3032 RMK A01 T10051014  RH  093%=      5-min Rain = 0
KRO1 090425Z 29008KT M01/M02 A3032 RMK A01 T10051015  RH  093%=      5-min Rain = 0
KRO1 090426Z 29008KT M01/M01 A3032 RMK A01 T10051014  RH  093%=      5-min Rain = 0
KRO1 090427Z 29008KT M01/M01 A3032 RMK A01 T10051014  RH  093%=      5-min Rain = 0
KRO1 090428Z 29008KT M01/M01 A3032 RMK A01 T10051014  RH  093%=      5-min Rain = 0
KRO1 090429Z 29008KT M01/M01 A3032 RMK A01 T10051014  RH  093%=      5-min Rain = 0
KRO1 090430Z 29007KT M01/M01 A3032 RMK A01 T10051014  RH  093%=      5-min Rain = 0
KRO1 090431Z 29007KT M01/M01 A3032 RMK A01 T10051014  RH  093%=      5-min Rain = 0
KRO1 090432Z 29007KT M01/M01 A3032 RMK A01 T10051014  RH  093%=      5-min Rain = 0
KRO1 090433Z 30007KT M01/M02 A3032 RMK A01 T10051015  RH  093%=      5-min Rain = 0
KRO1 090434Z 30007KT M01/M02 A3032 RMK A01 T10051015  RH  093%=      5-min Rain = 0
KRO1 090435Z 30007KT M01/M02 A3032 RMK A01 T10051015  RH  093%=      5-min Rain = 0
KRO1 090436Z 30007KT M01/M02 A3032 RMK A01 T10051015  RH  093%=      5-min Rain = 0
KRO1 090437Z 30007KT M01/M02 A3032 RMK A01 T10051015  RH  093%=      5-min Rain = 0
KRO1 090438Z 30007KT M01/M02 A3032 RMK A01 T10061015  RH  093%=      5-min Rain = 0
KRO1 090439Z 30008KT M01/M02 A3032 RMK A01 T10061015  RH  094%=      5-min Rain = 0
KRO1 090440Z 30008KT M01/M01 A3032 RMK A01 T10051014  RH  094%=      5-min Rain = 0
KRO1 090441Z 30008KT M01/M01 A3032 RMK A01 T10051014  RH  094%=      5-min Rain = 0
KRO1 090442Z 30008KT M01/M01 A3032 RMK A01 T10051014  RH  094%=      5-min Rain = 0
KRO1 090443Z 30008KT M01/M02 A3032 RMK A01 T10051015  RH  093%=      5-min Rain = 0
KRO1 090444Z 30008KT M01/M01 A3032 RMK A01 T10051014  RH  094%=      5-min Rain = 0
KRO1 090445Z 30007KT M01/M01 A3032 RMK A01 T10051014  RH  094%=      5-min Rain = 0
KRO1 090446Z 30007KT M01/M01 A3032 RMK A01 T10051014  RH  093%=      5-min Rain = 0
KRO1 090447Z 30007KT M01/M01 A3032 RMK A01 T10051014  RH  093%=      5-min Rain = 0
KRO1 090448Z 30007KT M01/M01 A3032 RMK A01 T10051014  RH  093%=      5-min Rain = 0
KRO1 090449Z 30007KT M01/M01 A3032 RMK A01 T10051014  RH  093%=      5-min Rain = 0
KRO1 090450Z 29007KT M01/M02 A3033 RMK A01 T10051015  RH  093%=      5-min Rain = 0
KRO1 090451Z 29008KT M01/M02 A3033 RMK A01 T10051015  RH  093%=      5-min Rain = 0
KRO1 090452Z 29007KT M01/M02 A3033 RMK A01 T10051015  RH  093%=      5-min Rain = 0
KRO1 090453Z 29008KT M01/M02 A3033 RMK A01 T10051015  RH  093%=      5-min Rain = 0
KRO1 090454Z 29008KT M01/M02 A3033 RMK A01 T10051015  RH  093%=      5-min Rain = 0
KRO1 090455Z 29008KT M01/M02 A3033 RMK A01 T10051015  RH  093%=      5-min Rain = 0
KRO1 090456Z 29008KT M01/M02 A3033 RMK A01 T10051015  RH  093%=      5-min Rain = 0
KRO1 090457Z 30007KT M01/M02 A3033 RMK A01 T10051016  RH  093%=      5-min Rain = 0
KRO1 090458Z 30007KT M01/M02 A3033 RMK A01 T10051016  RH  093%=      5-min Rain = 0
KRO1 090459Z 30007KT M01/M02 A3033 RMK A01 T10051016  RH  093%=      5-min Rain = 0
KRO1 090500Z 29007KT M01/M02 A3033 RMK A01 T10051016  RH  093%=      5-min Rain = 0
KRO1 090501Z 29007KT M01/M02 A3033 RMK A01 T10051016  RH  093%=      5-min Rain = 0
KRO1 090502Z 30007KT M01/M02 A3033 RMK A01 T10051016  RH  093%=      5-min Rain = 0
KRO1 090503Z 30007KT M01/M02 A3033 RMK A01 T10051016  RH  093%=      5-min Rain = 0
KRO1 090504Z 30007KT M01/M02 A3033 RMK A01 T10051016  RH  093%=      5-min Rain = 0
KRO1 090505Z 29007KT M01/M02 A3033 RMK A01 T10051016  RH  093%=      5-min Rain = 0
KRO1 090506Z 29007KT M01/M02 A3033 RMK A01 T10061017  RH  092%=      5-min Rain = 0
KRO1 090507Z 30007KT M01/M02 A3033 RMK A01 T10061017  RH  092%=      5-min Rain = 0
KRO1 090508Z 30007KT M01/M02 A3033 RMK A01 T10061017  RH  092%=      5-min Rain = 0
KRO1 090509Z 30007KT M01/M02 A3033 RMK A01 T10061016  RH  093%=      5-min Rain = 0
KRO1 090510Z 30007KT M01/M02 A3033 RMK A01 T10061016  RH  093%=      5-min Rain = 0
KRO1 090511Z 30007KT M01/M02 A3033 RMK A01 T10051015  RH  093%=      5-min Rain = 0
KRO1 090512Z 30007KT M01/M02 A3033 RMK A01 T10051015  RH  093%=      5-min Rain = 0
KRO1 090513Z 30007KT M01/M02 A3033 RMK A01 T10051015  RH  093%=      5-min Rain = 0
KRO1 090514Z 30006KT M01/M02 A3033 RMK A01 T10051016  RH  092%=      5-min Rain = 0
KRO1 090515Z 30006KT M01/M02 A3033 RMK A01 T10051016  RH  092%=      5-min Rain = 0
KRO1 090516Z 30006KT M01/M02 A3033 RMK A01 T10051016  RH  092%=      5-min Rain = 0
KRO1 090517Z 29007KT M01/M02 A3033 RMK A01 T10051017  RH  092%=      5-min Rain = 0
KRO1 090518Z 30007KT M01/M02 A3033 RMK A01 T10061017  RH  092%=      5-min Rain = 0
KRO1 090519Z 30008KT M01/M02 A3033 RMK A01 T10061017  RH  092%=      5-min Rain = 0
KRO1 090520Z 30008KT M01/M02 A3033 RMK A01 T10051016  RH  092%=      5-min Rain = 0
KRO1 090521Z 30008KT M01/M02 A3033 RMK A01 T10051016  RH  092%=      5-min Rain = 0
KRO1 090522Z 30008KT M00/M02 A3033 RMK A01 T10041015  RH  092%=      5-min Rain = 0
KRO1 090523Z 30007KT M00/M02 A3032 RMK A01 T10041015  RH  092%=      5-min Rain = 0
KRO1 090524Z 30008KT M00/M02 A3032 RMK A01 T10041016  RH  092%=      5-min Rain = 0
KRO1 090525Z 30008KT M00/M02 A3032 RMK A01 T10041016  RH  092%=      5-min Rain = 0
KRO1 090526Z 30008KT M00/M02 A3032 RMK A01 T10041016  RH  091%=      5-min Rain = 0
KRO1 090527Z 30008KT M00/M02 A3032 RMK A01 T10041016  RH  091%=      5-min Rain = 0
KRO1 090528Z 30008KT M00/M02 A3032 RMK A01 T10031016  RH  091%=      5-min Rain = 0
KRO1 090529Z 30008KT M00/M02 A3032 RMK A01 T10031016  RH  091%=      5-min Rain = 0
KRO1 090530Z 30008KT M00/M02 A3032 RMK A01 T10031015  RH  091%=      5-min Rain = 0
KRO1 090531Z 30008KT M00/M02 A3032 RMK A01 T10031015  RH  091%=      5-min Rain = 0
KRO1 090532Z 30008KT M00/M02 A3032 RMK A01 T10031016  RH  091%=      5-min Rain = 0
KRO1 090533Z 30008KT M00/M02 A3032 RMK A01 T10021015  RH  091%=      5-min Rain = 0
KRO1 090534Z 30008KT M00/M02 A3032 RMK A01 T10021015  RH  091%=      5-min Rain = 0
KRO1 090535Z 30008KT M00/M02 A3032 RMK A01 T10021015  RH  091%=      5-min Rain = 0
KRO1 090536Z 30008KT M00/M02 A3032 RMK A01 T10021015  RH  091%=      5-min Rain = 0
KRO1 090537Z 30008KT M00/M02 A3032 RMK A01 T10021015  RH  091%=      5-min Rain = 0
KRO1 090538Z 30008KT M00/M02 A3032 RMK A01 T10021015  RH  091%=      5-min Rain = 0
KRO1 090539Z 30007KT M00/M02 A3032 RMK A01 T10021015  RH  091%=      5-min Rain = 0
KRO1 090540Z 30008KT M00/M02 A3032 RMK A01 T10021015  RH  091%=      5-min Rain = 0
KRO1 090541Z 30008KT M00/M02 A3032 RMK A01 T10021015  RH  091%=      5-min Rain = 0
KRO1 090542Z 30008KT M00/M02 A3032 RMK A01 T10021015  RH  091%=      5-min Rain = 0
KRO1 090543Z 30007KT M00/M02 A3032 RMK A01 T10031015  RH  091%=      5-min Rain = 0
KRO1 090544Z 30008KT M00/M02 A3032 RMK A01 T10031015  RH  091%=      5-min Rain = 0
KRO1 090545Z 30007KT M00/M02 A3032 RMK A01 T10031015  RH  091%=      5-min Rain = 0
KRO1 090546Z 30008KT M00/M02 A3032 RMK A01 T10031015  RH  091%=      5-min Rain = 0
KRO1 090547Z 30008KT M00/M02 A3032 RMK A01 T10031015  RH  091%=      5-min Rain = 0
KRO1 090548Z 30007KT M00/M02 A3032 RMK A01 T10031015  RH  091%=      5-min Rain = 0
KRO1 090549Z 30008KT M00/M02 A3032 RMK A01 T10031015  RH  091%=      5-min Rain = 0
KRO1 090550Z 30007KT M00/M02 A3033 RMK A01 T10031015  RH  091%=      5-min Rain = 0
KRO1 090551Z 30007KT M00/M02 A3033 RMK A01 T10031015  RH  091%=      5-min Rain = 0
KRO1 090552Z 30007KT M00/M02 A3033 RMK A01 T10031016  RH  091%=      5-min Rain = 0
KRO1 090553Z 30007KT M00/M02 A3033 RMK A01 T10031016  RH  091%=      5-min Rain = 0
KRO1 090554Z 29007KT M00/M02 A3032 RMK A01 T10031015  RH  092%=      5-min Rain = 0
KRO1 090555Z 29007KT M00/M02 A3032 RMK A01 T10031016  RH  092%=      5-min Rain = 0
KRO1 090556Z 29008KT M00/M02 A3032 RMK A01 T10041016  RH  091%=      5-min Rain = 0
KRO1 090557Z 29007KT M00/M02 A3032 RMK A01 T10041016  RH  091%=      5-min Rain = 0
KRO1 090558Z 30007KT M00/M02 A3032 RMK A01 T10041017  RH  091%=      5-min Rain = 0
KRO1 090559Z 29007KT M01/M02 A3032 RMK A01 T10051017  RH  091%=      5-min Rain = 0

Page generated in 0.082 seconds.